| time (UTC) | temp C | wind direction | speed KPH | gust KPH | rain 1hr cm | rain 24hr cm | rain mn cm | humidity % | barometer mb |
| 20260510091540 | 20 | 239 | 9.7 | 17.7 | 0.00 | 1.12 | 0.03 | 72 | 1047.4 |
| 20260510091439 | 20 | 239 | 9.7 | 19.3 | 0.00 | 1.12 | 0.03 | 73 | 1047.4 |
| 20260510091339 | 20 | 246 | 8.0 | 19.3 | 0.00 | 1.12 | 0.03 | 73 | 1047.4 |
| 20260510091240 | 19 | 251 | 8.0 | 19.3 | 0.00 | 1.12 | 0.03 | 73 | 1047.4 |
| 20260510091132 | 19 | 248 | 8.0 | 19.3 | 0.00 | 1.12 | 0.03 | 73 | 1047.5 |
| 20260510091040 | 19 | 255 | 8.0 | 19.3 | 0.00 | 1.12 | 0.03 | 73 | 1047.5 |
| 20260510090939 | 19 | 262 | 9.7 | 19.3 | 0.00 | 1.12 | 0.03 | 74 | 1047.5 |
| 20260510090838 | 19 | 218 | 9.7 | 19.3 | 0.00 | 1.12 | 0.03 | 74 | 1047.5 |
| 20260510090733 | 19 | 231 | 9.7 | 19.3 | 0.00 | 1.12 | 0.03 | 74 | 1047.5 |
| 20260510090640 | 19 | 245 | 8.0 | 19.3 | 0.00 | 1.12 | 0.03 | 75 | 1047.5 |
| 20260510090633 | 19 | 246 | 8.0 | 19.3 | 0.00 | 1.12 | 0.03 | 75 | 1047.5 |
| 20260510090532 | 19 | 278 | 8.0 | 19.3 | 0.00 | 1.12 | 0.03 | 75 | 1047.5 |
| 20260510090430 | 19 | 209 | 9.7 | 16.1 | 0.00 | 1.12 | 0.03 | 73 | 1047.6 |
| 20260510090330 | 19 | 207 | 9.7 | 16.1 | 0.00 | 1.12 | 0.03 | 73 | 1047.6 |
| 20260510090229 | 19 | 208 | 9.7 | 16.1 | 0.00 | 1.12 | 0.03 | 75 | 1047.6 |
| 20260510090132 | 19 | 251 | 9.7 | 19.3 | 0.00 | 1.12 | 0.03 | 74 | 1047.5 |
| 20260510090112 | 19 | 229 | 11.3 | 19.3 | 0.00 | 1.12 | 0.03 | 75 | 1047.6 |
| 20260510085729 | 19 | 234 | 9.7 | 19.3 | 0.00 | 1.12 | 0.03 | 75 | 1047.5 |
| 20260510085638 | 19 | 252 | 11.3 | 19.3 | 0.00 | 1.12 | 0.03 | 75 | 1047.5 |
| 20260510085624 | 19 | 179 | 11.3 | 19.3 | 0.00 | 1.12 | 0.03 | 75 | 1047.5 |
| 20260510085614 | 19 | 221 | 9.7 | 19.3 | 0.00 | 1.12 | 0.03 | 76 | 1047.6 |
| 20260510085343 | 18 | 247 | 8.0 | 19.3 | 0.00 | 1.12 | 0.03 | 75 | 1047.5 |
| 20260510085323 | 18 | 236 | 6.4 | 17.7 | 0.00 | 1.12 | 0.03 | 76 | 1047.5 |
| 20260510085051 | 18 | 239 | 4.8 | 16.1 | 0.00 | 1.12 | 0.03 | 76 | 1047.5 |
| 20260510084717 | 18 | 247 | 3.2 | 16.1 | 0.00 | 1.12 | 0.03 | 76 | 1047.5 |
| 20260510084619 | 18 | 260 | 1.6 | 14.5 | 0.00 | 1.12 | 0.03 | 77 | 1047.6 |
| 20260510084509 | 18 | 260 | 1.6 | 14.5 | 0.00 | 1.12 | 0.03 | 78 | 1047.6 |
| 20260510084438 | 18 | 195 | 1.6 | 8.0 | 0.00 | 1.12 | 0.03 | 78 | 1047.6 |
| 20260510084428 | 18 | 84 | 1.6 | 6.4 | 0.00 | 1.12 | 0.03 | 79 | 1047.5 |
| 20260510084124 | 18 | 83 | 1.6 | 9.7 | 0.00 | 1.12 | 0.03 | 80 | 1047.6 |
| 20260510084115 | 18 | 84 | 3.2 | 9.7 | 0.00 | 1.12 | 0.03 | 80 | 1047.5 |
| 20260510084102 | 18 | 85 | 3.2 | 9.7 | 0.00 | 1.12 | 0.03 | 80 | 1047.6 |
| 20260510084053 | 18 | 84 | 3.2 | 9.7 | 0.00 | 1.12 | 0.03 | 80 | 1047.6 |
| 20260510084045 | 18 | 84 | 3.2 | 9.7 | 0.00 | 1.12 | 0.03 | 80 | 1047.6 |
| 20260510083504 | 17 | 84 | 3.2 | 9.7 | 0.00 | 1.12 | 0.03 | 80 | 1047.6 |
| 20260510083403 | 17 | 84 | 3.2 | 9.7 | 0.00 | 1.12 | 0.03 | 79 | 1047.6 |
| 20260510083301 | 17 | 84 | 3.2 | 9.7 | 0.00 | 1.12 | 0.03 | 80 | 1047.6 |
| 20260510083202 | 17 | 84 | 3.2 | 9.7 | 0.00 | 1.12 | 0.03 | 80 | 1047.6 |
| 20260510083101 | 17 | 83 | 3.2 | 8.0 | 0.00 | 1.12 | 0.03 | 80 | 1047.6 |
| 20260510083001 | 17 | 84 | 3.2 | 8.0 | 0.00 | 1.12 | 0.03 | 81 | 1047.6 |
| 20260510082902 | 17 | 85 | 3.2 | 8.0 | 0.00 | 1.12 | 0.03 | 82 | 1047.6 |
| 20260510082801 | 17 | 85 | 3.2 | 8.0 | 0.00 | 1.12 | 0.03 | 82 | 1047.6 |
| 20260510082700 | 17 | 79 | 3.2 | 8.0 | 0.00 | 1.12 | 0.03 | 83 | 1047.6 |
| 20260510082615 | 17 | 79 | 3.2 | 8.0 | 0.00 | 1.12 | 0.03 | 83 | 1047.6 |
| 20260510082559 | 17 | 79 | 3.2 | 8.0 | 0.00 | 1.12 | 0.03 | 83 | 1047.6 |
| 20260510082457 | 17 | 79 | 3.2 | 8.0 | 0.00 | 1.12 | 0.03 | 83 | 1047.6 |
| 20260510082424 | 17 | 79 | 3.2 | 8.0 | 0.00 | 1.12 | 0.03 | 84 | 1047.6 |
| 20260510082415 | 17 | 79 | 3.2 | 8.0 | 0.00 | 1.12 | 0.03 | 84 | 1047.6 |
| 20260510082112 | 17 | 79 | 4.8 | 11.3 | 0.00 | 1.12 | 0.03 | 83 | 1047.5 |
| 20260510082051 | 17 | 78 | 4.8 | 11.3 | 0.00 | 1.12 | 0.03 | 83 | 1047.5 |
| 20260510081951 | 16 | 79 | 4.8 | 11.3 | 0.00 | 1.12 | 0.03 | 83 | 1047.6 |
| 20260510081849 | 16 | 79 | 4.8 | 11.3 | 0.00 | 1.12 | 0.03 | 84 | 1047.6 |
| 20260510081747 | 16 | 79 | 4.8 | 11.3 | 0.00 | 1.12 | 0.03 | 84 | 1047.6 |
| 20260510081647 | 16 | 79 | 6.4 | 11.3 | 0.00 | 1.12 | 0.03 | 84 | 1047.6 |
| 20260510081612 | 16 | 79 | 6.4 | 11.3 | 0.00 | 1.12 | 0.03 | 85 | 1047.6 |
| 20260510081547 | 16 | 79 | 6.4 | 11.3 | 0.00 | 1.12 | 0.03 | 85 | 1047.6 |
| 20260510081447 | 16 | 79 | 6.4 | 11.3 | 0.00 | 1.12 | 0.03 | 85 | 1047.7 |
| 20260510081411 | 16 | 79 | 6.4 | 14.5 | 0.00 | 1.12 | 0.03 | 85 | 1047.7 |
| 20260510081401 | 16 | 77 | 6.4 | 14.5 | 0.00 | 1.12 | 0.03 | 85 | 1047.7 |
| 20260510081112 | 16 | 60 | 6.4 | 14.5 | 0.00 | 1.12 | 0.03 | 85 | 1047.7 |
| 20260510081042 | 16 | 60 | 6.4 | 14.5 | 0.00 | 1.12 | 0.03 | 85 | 1047.7 |
| 20260510080941 | 16 | 60 | 6.4 | 14.5 | 0.00 | 1.12 | 0.03 | 85 | 1047.7 |
| 20260510080841 | 16 | 60 | 6.4 | 14.5 | 0.00 | 1.12 | 0.03 | 85 | 1047.7 |
| 20260510080735 | 16 | 60 | 6.4 | 14.5 | 0.00 | 1.12 | 0.03 | 85 | 1047.7 |
| 20260510080635 | 16 | 57 | 6.4 | 14.5 | 0.00 | 1.12 | 0.03 | 85 | 1047.7 |
| 20260510080610 | 16 | 56 | 6.4 | 14.5 | 0.00 | 1.12 | 0.03 | 85 | 1047.7 |
| 20260510080559 | 16 | 57 | 4.8 | 14.5 | 0.00 | 1.12 | 0.03 | 85 | 1047.7 |
| 20260510080551 | 16 | 56 | 4.8 | 14.5 | 0.00 | 1.12 | 0.03 | 85 | 1047.7 |
| 20260510080539 | 16 | 114 | 4.8 | 11.3 | 0.00 | 1.12 | 0.03 | 85 | 1047.7 |
| 20260510080312 | 16 | 116 | 4.8 | 11.3 | 0.00 | 1.12 | 0.03 | 86 | 1047.7 |
| 20260510080300 | 16 | 131 | 4.8 | 11.3 | 0.00 | 1.12 | 0.03 | 86 | 1047.7 |
| 20260510075956 | 16 | 132 | 4.8 | 11.3 | 0.00 | 1.12 | 0.03 | 86 | 1047.6 |
| 20260510075942 | 16 | 359 | 3.2 | 9.7 | 0.00 | 1.12 | 0.03 | 86 | 1047.6 |
| 20260510075931 | 16 | 344 | 3.2 | 9.7 | 0.00 | 1.12 | 0.03 | 86 | 1047.6 |
| 20260510075918 | 16 | 343 | 3.2 | 9.7 | 0.00 | 1.12 | 0.03 | 86 | 1047.6 |
| 20260510075653 | 16 | 343 | 3.2 | 9.7 | 0.00 | 1.12 | 0.03 | 86 | 1047.6 |
| 20260510075330 | 16 | 342 | 3.2 | 9.7 | 0.00 | 1.12 | 0.03 | 86 | 1047.6 |
| 20260510075229 | 16 | 341 | 3.2 | 9.7 | 0.00 | 1.12 | 0.03 | 86 | 1047.6 |
| 20260510075106 | 16 | 337 | 3.2 | 6.4 | 0.00 | 1.12 | 0.03 | 86 | 1047.6 |
| 20260510075029 | 16 | 337 | 1.6 | 6.4 | 0.00 | 1.12 | 0.03 | 87 | 1047.6 |
| 20260510074929 | 16 | 337 | 1.6 | 6.4 | 0.00 | 1.12 | 0.03 | 87 | 1047.6 |
| 20260510074829 | 16 | 337 | 1.6 | 6.4 | 0.00 | 1.12 | 0.03 | 87 | 1047.6 |
| 20260510074818 | 16 | 337 | 3.2 | 6.4 | 0.00 | 1.12 | 0.03 | 87 | 1047.6 |
| 20260510074758 | 16 | 337 | 3.2 | 6.4 | 0.00 | 1.12 | 0.03 | 87 | 1047.6 |
| 20260510074429 | 16 | 337 | 3.2 | 6.4 | 0.00 | 1.12 | 0.03 | 88 | 1047.6 |
| 20260510074356 | 16 | 332 | 3.2 | 6.4 | 0.00 | 1.12 | 0.03 | 88 | 1047.6 |
| 20260510074348 | 16 | 332 | 3.2 | 6.4 | 0.00 | 1.12 | 0.03 | 87 | 1047.6 |
| 20260510074106 | 15 | 332 | 3.2 | 6.4 | 0.00 | 1.12 | 0.03 | 87 | 1047.6 |
| 20260510074033 | 15 | 332 | 3.2 | 6.4 | 0.00 | 1.12 | 0.03 | 87 | 1047.6 |
| 20260510073933 | 15 | 332 | 3.2 | 6.4 | 0.00 | 1.12 | 0.03 | 87 | 1047.6 |
| 20260510073924 | 15 | 334 | 3.2 | 6.4 | 0.00 | 1.12 | 0.03 | 87 | 1047.6 |
| 20260510073918 | 15 | 330 | 1.6 | 6.4 | 0.00 | 1.12 | 0.03 | 87 | 1047.6 |
| 20260510073853 | 15 | 330 | 1.6 | 6.4 | 0.00 | 1.12 | 0.03 | 87 | 1047.6 |
| 20260510073842 | 15 | 330 | 1.6 | 6.4 | 0.00 | 1.12 | 0.03 | 87 | 1047.6 |
| 20260510073616 | 15 | 329 | 1.6 | 4.8 | 0.00 | 1.12 | 0.03 | 88 | 1047.6 |
| 20260510073606 | 15 | 329 | 1.6 | 4.8 | 0.00 | 1.12 | 0.03 | 89 | 1047.5 |
| 20260510073334 | 15 | 329 | 1.6 | 4.8 | 0.00 | 1.12 | 0.03 | 89 | 1047.5 |
| 20260510073325 | 15 | 329 | 1.6 | 4.8 | 0.00 | 1.12 | 0.03 | 89 | 1047.5 |
| 20260510073318 | 15 | 329 | 1.6 | 4.8 | 0.00 | 1.12 | 0.03 | 89 | 1047.5 |
| 20260510073050 | 15 | 329 | 1.6 | 4.8 | 0.00 | 1.12 | 0.03 | 89 | 1047.5 |
| 20260510072819 | 15 | 329 | 1.6 | 6.4 | 0.00 | 1.12 | 0.03 | 89 | 1047.5 |
| 20260510072807 | 15 | 329 | 3.2 | 6.4 | 0.00 | 1.12 | 0.03 | 90 | 1047.5 |
| 20260510072227 | 15 | 328 | 3.2 | 6.4 | 0.00 | 1.12 | 0.03 | 90 | 1047.4 |
| 20260510072203 | 14 | 329 | 3.2 | 6.4 | 0.00 | 1.12 | 0.03 | 90 | 1047.5 |
| 20260510072155 | 14 | 328 | 3.2 | 6.4 | 0.00 | 1.12 | 0.03 | 90 | 1047.5 |
| 20260510072144 | 14 | 329 | 3.2 | 8.0 | 0.00 | 1.12 | 0.03 | 90 | 1047.5 |
| 20260510072130 | 14 | 329 | 3.2 | 8.0 | 0.00 | 1.12 | 0.03 | 90 | 1047.5 |
| 20260510071904 | 14 | 329 | 4.8 | 8.0 | 0.00 | 1.12 | 0.03 | 90 | 1047.4 |
| 20260510071609 | 14 | 329 | 4.8 | 8.0 | 0.00 | 1.12 | 0.03 | 90 | 1047.5 |
| 20260510071520 | 14 | 329 | 4.8 | 8.0 | 0.00 | 1.12 | 0.03 | 90 | 1047.5 |
| 20260510071420 | 14 | 329 | 4.8 | 8.0 | 0.00 | 1.12 | 0.03 | 89 | 1047.4 |
| 20260510071319 | 13 | 329 | 4.8 | 8.0 | 0.00 | 1.12 | 0.03 | 89 | 1047.4 |
| 20260510071219 | 13 | 329 | 4.8 | 8.0 | 0.00 | 1.12 | 0.03 | 90 | 1047.4 |
| 20260510071117 | 13 | 331 | 4.8 | 8.0 | 0.00 | 1.12 | 0.03 | 90 | 1047.5 |
| 20260510071106 | 13 | 329 | 4.8 | 8.0 | 0.00 | 1.12 | 0.03 | 90 | 1047.5 |
| 20260510071017 | 13 | 328 | 4.8 | 8.0 | 0.00 | 1.12 | 0.03 | 90 | 1047.4 |
| 20260510070917 | 13 | 325 | 4.8 | 8.0 | 0.00 | 1.12 | 0.03 | 90 | 1047.5 |
| 20260510070815 | 13 | 324 | 4.8 | 8.0 | 0.00 | 1.12 | 0.03 | 90 | 1047.5 |
| 20260510070753 | 13 | 324 | 4.8 | 8.0 | 0.00 | 1.12 | 0.03 | 90 | 1047.5 |
| 20260510070737 | 13 | 324 | 4.8 | 8.0 | 0.00 | 1.12 | 0.03 | 90 | 1047.4 |
| 20260510070424 | 13 | 317 | 4.8 | 8.0 | 0.00 | 1.12 | 0.03 | 90 | 1047.4 |
| 20260510070415 | 13 | 317 | 4.8 | 8.0 | 0.00 | 1.12 | 0.03 | 90 | 1047.5 |
| 20260510070402 | 13 | 312 | 4.8 | 6.4 | 0.00 | 1.12 | 0.03 | 91 | 1047.4 |
| 20260510070346 | 13 | 311 | 4.8 | 6.4 | 0.00 | 1.12 | 0.03 | 91 | 1047.4 |
| 20260510065803 | 13 | 310 | 3.2 | 6.4 | 0.00 | 1.12 | 0.03 | 92 | 1047.5 |
| 20260510065742 | 13 | 308 | 3.2 | 6.4 | 0.00 | 1.12 | 0.03 | 92 | 1047.4 |
| 20260510065725 | 13 | 308 | 3.2 | 6.4 | 0.00 | 1.12 | 0.03 | 92 | 1047.4 |
| 20260510065405 | 13 | 299 | 3.2 | 4.8 | 0.00 | 1.12 | 0.03 | 92 | 1047.4 |
| 20260510065343 | 13 | 299 | 3.2 | 4.8 | 0.00 | 1.12 | 0.03 | 93 | 1047.4 |
| 20260510065335 | 13 | 299 | 1.6 | 4.8 | 0.00 | 1.12 | 0.03 | 93 | 1047.4 |
| 20260510065106 | 13 | 299 | 1.6 | 4.8 | 0.00 | 1.12 | 0.03 | 93 | 1047.4 |
| 20260510065044 | 13 | 299 | 1.6 | 4.8 | 0.00 | 1.12 | 0.03 | 93 | 1047.4 |
| 20260510065034 | 13 | 299 | 1.6 | 4.8 | 0.00 | 1.12 | 0.03 | 93 | 1047.4 |
| 20260510064739 | 13 | 299 | 1.6 | 3.2 | 0.00 | 1.12 | 0.03 | 93 | 1047.4 |
| 20260510064724 | 13 | 299 | 1.6 | 3.2 | 0.00 | 1.12 | 0.03 | 93 | 1047.3 |
| 20260510064711 | 13 | 299 | 1.6 | 3.2 | 0.00 | 1.12 | 0.03 | 93 | 1047.4 |
| 20260510064701 | 13 | 299 | 1.6 | 4.8 | 0.00 | 1.12 | 0.03 | 93 | 1047.4 |
| 20260510064653 | 13 | 299 | 1.6 | 4.8 | 0.00 | 1.12 | 0.03 | 93 | 1047.4 |
| 20260510064631 | 13 | 299 | 1.6 | 4.8 | 0.00 | 1.12 | 0.03 | 93 | 1047.4 |
| 20260510064404 | 13 | 299 | 1.6 | 4.8 | 0.00 | 1.12 | 0.03 | 93 | 1047.3 |
| 20260510064132 | 12 | 298 | 1.6 | 4.8 | 0.00 | 1.12 | 0.03 | 93 | 1047.4 |
| 20260510063621 | 12 | 297 | 1.6 | 4.8 | 0.00 | 1.12 | 0.03 | 93 | 1047.3 |
| 20260510063612 | 12 | 298 | 1.6 | 4.8 | 0.00 | 1.12 | 0.03 | 93 | 1047.3 |
| 20260510063606 | 12 | 298 | 0.0 | 4.8 | 0.00 | 1.12 | 0.03 | 93 | 1047.3 |
| 20260510063242 | 12 | 298 | 0.0 | 3.2 | 0.00 | 1.12 | 0.03 | 93 | 1047.3 |
| 20260510063222 | 12 | 298 | 0.0 | 3.2 | 0.00 | 1.12 | 0.03 | 93 | 1047.3 |
| 20260510063212 | 12 | 298 | 0.0 | 3.2 | 0.00 | 1.12 | 0.03 | 94 | 1047.3 |
| 20260510063204 | 12 | 297 | 0.0 | 3.2 | 0.00 | 1.12 | 0.03 | 94 | 1047.3 |
| 20260510062839 | 12 | 298 | 0.0 | 3.2 | 0.00 | 1.12 | 0.03 | 93 | 1047.3 |
| 20260510062740 | 12 | 297 | 0.0 | 3.2 | 0.00 | 1.12 | 0.03 | 93 | 1047.3 |
| 20260510062643 | 12 | 297 | 0.0 | 3.2 | 0.00 | 1.12 | 0.03 | 94 | 1047.3 |
| 20260510062604 | 12 | 298 | 0.0 | 3.2 | 0.00 | 1.12 | 0.03 | 94 | 1047.3 |
| 20260510062542 | 12 | 298 | 0.0 | 3.2 | 0.00 | 1.12 | 0.03 | 94 | 1047.3 |
| 20260510062441 | 12 | 297 | 1.6 | 3.2 | 0.00 | 1.12 | 0.03 | 93 | 1047.3 |
| 20260510062340 | 12 | 298 | 1.6 | 3.2 | 0.00 | 1.12 | 0.03 | 93 | 1047.3 |
| 20260510062239 | 12 | 297 | 1.6 | 3.2 | 0.00 | 1.12 | 0.03 | 94 | 1047.3 |
| 20260510062139 | 11 | 297 | 1.6 | 4.8 | 0.00 | 1.12 | 0.03 | 94 | 1047.3 |
| 20260510062104 | 11 | 297 | 1.6 | 6.4 | 0.00 | 1.12 | 0.03 | 93 | 1047.3 |
| 20260510062040 | 11 | 298 | 1.6 | 6.4 | 0.00 | 1.12 | 0.03 | 93 | 1047.3 |
| 20260510061939 | 11 | 297 | 1.6 | 6.4 | 0.00 | 1.12 | 0.03 | 93 | 1047.4 |
| 20260510061838 | 11 | 298 | 3.2 | 6.4 | 0.00 | 1.12 | 0.03 | 93 | 1047.3 |
| 20260510061735 | 11 | 297 | 3.2 | 6.4 | 0.00 | 1.12 | 0.03 | 94 | 1047.3 |
| 20260510061636 | 11 | 298 | 3.2 | 6.4 | 0.00 | 1.12 | 0.03 | 93 | 1047.3 |
| 20260510061606 | 11 | 297 | 3.2 | 6.4 | 0.00 | 1.12 | 0.03 | 93 | 1047.3 |
| 20260510061558 | 11 | 298 | 3.2 | 6.4 | 0.00 | 1.12 | 0.03 | 93 | 1047.3 |
| 20260510061544 | 11 | 297 | 4.8 | 6.4 | 0.00 | 1.12 | 0.03 | 94 | 1047.3 |
| 20260510061533 | 11 | 297 | 4.8 | 6.4 | 0.00 | 1.12 | 0.03 | 94 | 1047.3 |
| 20260510061522 | 11 | 297 | 4.8 | 6.4 | 0.00 | 1.12 | 0.03 | 93 | 1047.3 |
| 20260510061252 | 11 | 298 | 3.2 | 4.8 | 0.00 | 1.12 | 0.03 | 93 | 1047.3 |
| 20260510061244 | 11 | 297 | 3.2 | 4.8 | 0.00 | 1.12 | 0.03 | 94 | 1047.3 |
| 20260510061237 | 11 | 297 | 3.2 | 4.8 | 0.00 | 1.12 | 0.03 | 94 | 1047.3 |
| 20260510061230 | 10 | 298 | 3.2 | 4.8 | 0.00 | 1.12 | 0.03 | 94 | 1047.3 |
| 20260510060948 | 10 | 298 | 3.2 | 4.8 | 0.00 | 1.12 | 0.03 | 93 | 1047.3 |
| 20260510060714 | 10 | 297 | 3.2 | 4.8 | 0.00 | 1.12 | 0.03 | 93 | 1047.2 |
| 20260510060132 | 10 | 297 | 3.2 | 4.8 | 0.00 | 1.12 | 0.03 | 94 | 1047.2 |
| 20260510060032 | 10 | 298 | 3.2 | 4.8 | 0.00 | 1.12 | 0.03 | 93 | 1047.2 |
| 20260510055932 | 10 | 297 | 3.2 | 6.4 | 0.00 | 1.12 | 0.03 | 93 | 1047.2 |
| 20260510055832 | 10 | 297 | 3.2 | 6.4 | 0.00 | 1.12 | 0.03 | 93 | 1047.2 |
| 20260510055813 | 10 | 298 | 3.2 | 6.4 | 0.00 | 1.12 | 0.03 | 94 | 1047.2 |
| 20260510055805 | 10 | 297 | 3.2 | 6.4 | 0.00 | 1.12 | 0.03 | 94 | 1047.2 |
| 20260510055755 | 10 | 298 | 3.2 | 6.4 | 0.00 | 1.12 | 0.03 | 94 | 1047.2 |
| 20260510055432 | 10 | 298 | 3.2 | 6.4 | 0.00 | 1.12 | 0.03 | 93 | 1047.2 |
| 20260510055332 | 10 | 297 | 3.2 | 6.4 | 0.00 | 1.12 | 0.03 | 93 | 1047.2 |
| 20260510055233 | 10 | 297 | 3.2 | 6.4 | 0.00 | 1.12 | 0.03 | 94 | 1047.1 |
| 20260510055131 | 10 | 298 | 3.2 | 6.4 | 0.00 | 1.12 | 0.03 | 94 | 1047.1 |
| 20260510055112 | 10 | 297 | 3.2 | 6.4 | 0.00 | 1.12 | 0.03 | 94 | 1047.1 |
| 20260510055105 | 10 | 298 | 3.2 | 6.4 | 0.00 | 1.12 | 0.03 | 94 | 1047.1 |
| 20260510055058 | 9 | 297 | 3.2 | 6.4 | 0.00 | 1.12 | 0.03 | 94 | 1047.1 |
| 20260510055039 | 9 | 297 | 3.2 | 6.4 | 0.00 | 1.12 | 0.03 | 93 | 1047.2 |
| 20260510055031 | 9 | 298 | 3.2 | 6.4 | 0.00 | 1.12 | 0.03 | 93 | 1047.1 |
| 20260510054749 | 9 | 298 | 3.2 | 6.4 | 0.00 | 1.12 | 0.03 | 93 | 1047.2 |
| 20260510054431 | 9 | 297 | 4.8 | 6.4 | 0.00 | 1.12 | 0.03 | 93 | 1047.2 |
| 20260510054332 | 9 | 297 | 4.8 | 6.4 | 0.00 | 1.12 | 0.03 | 94 | 1047.2 |
| 20260510054232 | 9 | 297 | 3.2 | 6.4 | 0.00 | 1.12 | 0.03 | 94 | 1047.2 |
| 20260510054131 | 9 | 297 | 3.2 | 6.4 | 0.00 | 1.12 | 0.03 | 94 | 1047.2 |
| 20260510054033 | 9 | 298 | 3.2 | 6.4 | 0.00 | 1.12 | 0.03 | 94 | 1047.2 |
| 20260510053931 | 9 | 298 | 3.2 | 6.4 | 0.00 | 1.12 | 0.03 | 94 | 1047.2 |
| 20260510053831 | 9 | 298 | 3.2 | 6.4 | 0.00 | 1.12 | 0.03 | 94 | 1047.2 |
| 20260510053738 | 9 | 297 | 3.2 | 6.4 | 0.00 | 1.12 | 0.03 | 93 | 1047.2 |
| 20260510053716 | 9 | 298 | 3.2 | 6.4 | 0.00 | 1.12 | 0.03 | 93 | 1047.2 |
| 20260510053651 | 9 | 298 | 3.2 | 6.4 | 0.00 | 1.12 | 0.03 | 93 | 1047.2 |
| 20260510053329 | 9 | 298 | 3.2 | 6.4 | 0.00 | 1.12 | 0.03 | 93 | 1047.2 |
| 20260510053229 | 8 | 298 | 3.2 | 6.4 | 0.00 | 1.12 | 0.03 | 94 | 1047.2 |
| 20260510053130 | 8 | 298 | 3.2 | 6.4 | 0.00 | 1.12 | 0.03 | 94 | 1047.1 |
| 20260510053104 | 8 | 298 | 3.2 | 6.4 | 0.00 | 1.12 | 0.03 | 94 | 1047.1 |
| 20260510053057 | 8 | 298 | 3.2 | 6.4 | 0.00 | 1.12 | 0.03 | 94 | 1047.1 |
| 20260510052729 | 8 | 298 | 3.2 | 4.8 | 0.00 | 1.12 | 0.03 | 93 | 1047.2 |
| 20260510052627 | 8 | 298 | 3.2 | 4.8 | 0.00 | 1.12 | 0.03 | 93 | 1047.2 |
| 20260510052522 | 8 | 298 | 3.2 | 4.8 | 0.00 | 1.12 | 0.03 | 93 | 1047.2 |
| 20260510052422 | 8 | 297 | 3.2 | 6.4 | 0.00 | 1.12 | 0.03 | 93 | 1047.2 |
| 20260510052321 | 8 | 299 | 3.2 | 6.4 | 0.00 | 1.12 | 0.03 | 93 | 1047.2 |
| 20260510052222 | 8 | 298 | 4.8 | 6.4 | 0.00 | 1.12 | 0.03 | 94 | 1047.2 |
| 20260510052121 | 8 | 298 | 4.8 | 6.4 | 0.00 | 1.12 | 0.03 | 94 | 1047.3 |
| 20260510052044 | 8 | 298 | 4.8 | 6.4 | 0.00 | 1.12 | 0.03 | 94 | 1047.3 |
| 20260510052018 | 8 | 298 | 4.8 | 6.4 | 0.00 | 1.12 | 0.03 | 94 | 1047.2 |
| 20260510051934 | 8 | 298 | 4.8 | 6.4 | 0.00 | 1.12 | 0.03 | 94 | 1047.2 |
| 20260510051926 | 8 | 298 | 4.8 | 6.4 | 0.00 | 1.12 | 0.03 | 94 | 1047.2 |
| 20260510051915 | 8 | 298 | 4.8 | 6.4 | 0.00 | 1.12 | 0.03 | 94 | 1047.2 |
| 20260510051903 | 8 | 299 | 4.8 | 6.4 | 0.00 | 1.12 | 0.03 | 94 | 1047.2 |
| 20260510051633 | 8 | 298 | 3.2 | 6.4 | 0.00 | 1.12 | 0.03 | 93 | 1047.2 |
| 20260510051321 | 8 | 298 | 3.2 | 6.4 | 0.00 | 1.12 | 0.03 | 93 | 1047.1 |
| 20260510051308 | 8 | 299 | 3.2 | 6.4 | 0.00 | 1.12 | 0.03 | 93 | 1047.1 |
| 20260510051300 | 8 | 298 | 3.2 | 6.4 | 0.00 | 1.12 | 0.03 | 93 | 1047.1 |
| 20260510051248 | 8 | 299 | 3.2 | 6.4 | 0.00 | 1.12 | 0.03 | 93 | 1047.1 |
| 20260510051235 | 8 | 298 | 4.8 | 6.4 | 0.00 | 1.12 | 0.03 | 93 | 1047.1 |
| 20260510051007 | 8 | 299 | 4.8 | 6.4 | 0.00 | 1.12 | 0.03 | 93 | 1047.0 |
| 20260510050736 | 8 | 298 | 4.8 | 6.4 | 0.00 | 1.12 | 0.03 | 93 | 1047.1 |
| 20260510050725 | 8 | 298 | 4.8 | 6.4 | 0.00 | 1.12 | 0.03 | 93 | 1047.1 |
| 20260510050718 | 8 | 299 | 4.8 | 6.4 | 0.00 | 1.12 | 0.03 | 93 | 1047.1 |
| 20260510050656 | 8 | 298 | 4.8 | 6.4 | 0.00 | 1.12 | 0.03 | 93 | 1047.1 |
| 20260510050648 | 8 | 299 | 4.8 | 6.4 | 0.00 | 1.12 | 0.03 | 93 | 1047.1 |
| 20260510050420 | 8 | 300 | 4.8 | 6.4 | 0.00 | 1.12 | 0.03 | 93 | 1047.2 |
| 20260510050409 | 8 | 299 | 4.8 | 6.4 | 0.00 | 1.12 | 0.03 | 93 | 1047.2 |
| 20260510050353 | 8 | 300 | 4.8 | 6.4 | 0.00 | 1.12 | 0.03 | 93 | 1047.1 |
| 20260510050345 | 8 | 300 | 3.2 | 6.4 | 0.00 | 1.12 | 0.03 | 93 | 1047.1 |
| 20260510045631 | 8 | 300 | 3.2 | 6.4 | 0.00 | 1.12 | 0.03 | 93 | 1047.1 |
| 20260510045306 | 8 | 299 | 1.6 | 6.4 | 0.00 | 1.12 | 0.03 | 93 | 1047.1 |
| 20260510045205 | 8 | 300 | 1.6 | 4.8 | 0.00 | 1.12 | 0.03 | 93 | 1047.1 |
| 20260510045104 | 8 | 300 | 1.6 | 4.8 | 0.00 | 1.12 | 0.03 | 93 | 1047.2 |
| 20260510045048 | 8 | 301 | 1.6 | 4.8 | 0.00 | 1.12 | 0.03 | 93 | 1047.1 |
| 20260510045036 | 8 | 300 | 1.6 | 4.8 | 0.00 | 1.12 | 0.03 | 93 | 1047.1 |
| 20260510045029 | 8 | 300 | 1.6 | 4.8 | 0.00 | 1.12 | 0.03 | 93 | 1047.1 |
| 20260510044747 | 8 | 300 | 3.2 | 4.8 | 0.00 | 1.12 | 0.03 | 93 | 1047.2 |
| 20260510044739 | 8 | 301 | 3.2 | 4.8 | 0.00 | 1.12 | 0.03 | 93 | 1047.2 |
| 20260510044725 | 8 | 301 | 3.2 | 4.8 | 0.00 | 1.12 | 0.03 | 93 | 1047.2 |
| 20260510044405 | 8 | 300 | 3.2 | 4.8 | 0.00 | 1.12 | 0.03 | 93 | 1047.2 |
| 20260510044320 | 8 | 300 | 3.2 | 4.8 | 0.00 | 1.12 | 0.03 | 93 | 1047.2 |
| 20260510044312 | 8 | 301 | 3.2 | 4.8 | 0.00 | 1.12 | 0.03 | 93 | 1047.2 |
| 20260510044301 | 8 | 301 | 3.2 | 4.8 | 0.00 | 1.12 | 0.03 | 93 | 1047.2 |
| 20260510044001 | 8 | 301 | 3.2 | 4.8 | 0.00 | 1.12 | 0.03 | 93 | 1047.2 |
| 20260510043902 | 8 | 300 | 3.2 | 4.8 | 0.00 | 1.12 | 0.03 | 93 | 1047.2 |
| 20260510043759 | 8 | 301 | 3.2 | 4.8 | 0.00 | 1.12 | 0.03 | 93 | 1047.2 |
| 20260510043657 | 8 | 300 | 3.2 | 4.8 | 0.00 | 1.12 | 0.03 | 93 | 1047.2 |
| 20260510043559 | 8 | 301 | 3.2 | 6.4 | 0.00 | 1.12 | 0.03 | 93 | 1047.2 |
| 20260510043549 | 8 | 301 | 3.2 | 6.4 | 0.00 | 1.12 | 0.03 | 93 | 1047.3 |
| 20260510043454 | 8 | 300 | 3.2 | 6.4 | 0.00 | 1.12 | 0.03 | 93 | 1047.3 |
| 20260510043352 | 8 | 302 | 3.2 | 6.4 | 0.00 | 1.12 | 0.03 | 93 | 1047.2 |
| 20260510043251 | 8 | 300 | 3.2 | 6.4 | 0.00 | 1.12 | 0.03 | 93 | 1047.3 |
| 20260510043228 | 8 | 301 | 3.2 | 6.4 | 0.00 | 1.12 | 0.03 | 93 | 1047.3 |
| 20260510043221 | 8 | 300 | 3.2 | 6.4 | 0.00 | 1.12 | 0.03 | 93 | 1047.4 |
| 20260510043211 | 8 | 301 | 3.2 | 6.4 | 0.00 | 1.12 | 0.03 | 93 | 1047.4 |
| 20260510042845 | 8 | 300 | 3.2 | 6.4 | 0.00 | 1.12 | 0.03 | 93 | 1047.4 |
| 20260510042747 | 8 | 301 | 3.2 | 6.4 | 0.00 | 1.12 | 0.03 | 93 | 1047.3 |
| 20260510042645 | 8 | 300 | 3.2 | 6.4 | 0.00 | 1.12 | 0.03 | 93 | 1047.4 |
| 20260510042613 | 8 | 301 | 3.2 | 6.4 | 0.00 | 1.12 | 0.03 | 93 | 1047.4 |
| 20260510042606 | 8 | 301 | 4.8 | 6.4 | 0.00 | 1.12 | 0.03 | 93 | 1047.4 |
| 20260510042551 | 8 | 301 | 4.8 | 6.4 | 0.00 | 1.12 | 0.03 | 93 | 1047.4 |
| 20260510042543 | 8 | 301 | 4.8 | 6.4 | 0.00 | 1.12 | 0.03 | 93 | 1047.4 |
| 20260510042533 | 8 | 301 | 4.8 | 6.4 | 0.00 | 1.12 | 0.03 | 93 | 1047.4 |
| 20260510042309 | 8 | 301 | 4.8 | 6.4 | 0.00 | 1.12 | 0.03 | 93 | 1047.4 |
| 20260510042300 | 8 | 301 | 4.8 | 6.4 | 0.00 | 1.12 | 0.03 | 93 | 1047.4 |
| 20260510042248 | 8 | 301 | 4.8 | 6.4 | 0.00 | 1.12 | 0.03 | 93 | 1047.4 |
| 20260510041758 | 8 | 301 | 4.8 | 8.0 | 0.00 | 1.12 | 0.03 | 93 | 1047.3 |
| 20260510041510 | 8 | 301 | 4.8 | 8.0 | 0.00 | 1.12 | 0.03 | 93 | 1047.3 |
| 20260510041459 | 8 | 301 | 4.8 | 8.0 | 0.00 | 1.12 | 0.03 | 93 | 1047.3 |
| 20260510041137 | 8 | 301 | 4.8 | 8.0 | 0.00 | 1.12 | 0.03 | 93 | 1047.3 |
| 20260510041035 | 8 | 301 | 4.8 | 8.0 | 0.00 | 1.12 | 0.03 | 93 | 1047.3 |
| 20260510040937 | 8 | 301 | 4.8 | 8.0 | 0.00 | 1.12 | 0.03 | 93 | 1047.3 |
| 20260510040853 | 8 | 301 | 4.8 | 8.0 | 0.00 | 1.12 | 0.03 | 93 | 1047.3 |
| 20260510040844 | 8 | 301 | 3.2 | 8.0 | 0.00 | 1.12 | 0.03 | 93 | 1047.3 |
| 20260510040835 | 8 | 301 | 3.2 | 8.0 | 0.00 | 1.12 | 0.03 | 93 | 1047.3 |
| 20260510040815 | 8 | 301 | 3.2 | 6.4 | 0.00 | 1.12 | 0.03 | 93 | 1047.3 |
| 20260510040547 | 8 | 301 | 3.2 | 4.8 | 0.00 | 1.12 | 0.03 | 93 | 1047.3 |
| 20260510040306 | 8 | 301 | 3.2 | 4.8 | 0.00 | 1.12 | 0.03 | 93 | 1047.4 |
| 20260510040250 | 8 | 301 | 3.2 | 4.8 | 0.00 | 1.12 | 0.03 | 93 | 1047.4 |
| 20260510035936 | 8 | 302 | 3.2 | 4.8 | 0.00 | 1.12 | 0.03 | 93 | 1047.4 |
| 20260510035833 | 8 | 301 | 3.2 | 4.8 | 0.00 | 1.12 | 0.03 | 93 | 1047.3 |
| 20260510035734 | 8 | 301 | 3.2 | 4.8 | 0.00 | 1.12 | 0.03 | 93 | 1047.3 |
| 20260510035634 | 8 | 301 | 3.2 | 4.8 | 0.00 | 1.12 | 0.03 | 93 | 1047.3 |
| 20260510035535 | 8 | 301 | 3.2 | 4.8 | 0.00 | 1.12 | 0.03 | 93 | 1047.3 |
| 20260510035431 | 8 | 301 | 3.2 | 4.8 | 0.00 | 1.12 | 0.03 | 93 | 1047.3 |
| 20260510035331 | 8 | 301 | 3.2 | 4.8 | 0.00 | 1.12 | 0.03 | 93 | 1047.3 |
| 20260510035232 | 8 | 301 | 3.2 | 4.8 | 0.00 | 1.12 | 0.03 | 93 | 1047.3 |
| 20260510035211 | 8 | 301 | 3.2 | 4.8 | 0.00 | 1.12 | 0.03 | 93 | 1047.3 |
| 20260510035156 | 8 | 301 | 3.2 | 4.8 | 0.00 | 1.12 | 0.03 | 93 | 1047.3 |
| 20260510034831 | 8 | 301 | 3.2 | 4.8 | 0.00 | 1.12 | 0.03 | 93 | 1047.3 |
| 20260510034731 | 8 | 301 | 3.2 | 4.8 | 0.00 | 1.12 | 0.03 | 93 | 1047.3 |
| 20260510034631 | 8 | 301 | 3.2 | 4.8 | 0.00 | 1.12 | 0.03 | 93 | 1047.2 |
| 20260510034534 | 8 | 301 | 3.2 | 4.8 | 0.00 | 1.12 | 0.03 | 93 | 1047.2 |
| 20260510034431 | 8 | 301 | 3.2 | 4.8 | 0.00 | 1.12 | 0.03 | 93 | 1047.2 |
| 20260510034349 | 8 | 301 | 3.2 | 4.8 | 0.00 | 1.12 | 0.03 | 93 | 1047.2 |
| 20260510034343 | 8 | 301 | 3.2 | 4.8 | 0.00 | 1.12 | 0.03 | 93 | 1047.2 |
| 20260510034330 | 8 | 301 | 3.2 | 4.8 | 0.00 | 1.12 | 0.03 | 93 | 1047.2 |
| 20260510034314 | 8 | 301 | 3.2 | 4.8 | 0.00 | 1.12 | 0.03 | 93 | 1047.2 |
| 20260510033730 | 8 | 301 | 3.2 | 6.4 | 0.00 | 1.12 | 0.03 | 93 | 1047.3 |
| 20260510033629 | 8 | 301 | 3.2 | 6.4 | 0.00 | 1.12 | 0.03 | 93 | 1047.3 |
| 20260510033535 | 8 | 301 | 3.2 | 6.4 | 0.00 | 1.12 | 0.03 | 93 | 1047.3 |
| 20260510033505 | 8 | 301 | 3.2 | 6.4 | 0.00 | 1.12 | 0.03 | 93 | 1047.3 |
| 20260510033458 | 8 | 301 | 3.2 | 6.4 | 0.00 | 1.12 | 0.03 | 93 | 1047.3 |
| 20260510033446 | 8 | 301 | 3.2 | 6.4 | 0.00 | 1.12 | 0.03 | 93 | 1047.3 |
| 20260510033422 | 8 | 301 | 3.2 | 6.4 | 0.00 | 1.12 | 0.03 | 93 | 1047.3 |
| 20260510033152 | 8 | 301 | 3.2 | 6.4 | 0.00 | 1.12 | 0.03 | 93 | 1047.3 |
| 20260510032829 | 8 | 301 | 3.2 | 6.4 | 0.00 | 1.12 | 0.03 | 93 | 1047.4 |
| 20260510032728 | 8 | 301 | 3.2 | 6.4 | 0.00 | 1.12 | 0.03 | 93 | 1047.4 |
| 20260510032637 | 8 | 301 | 3.2 | 6.4 | 0.00 | 1.12 | 0.03 | 93 | 1047.3 |
| 20260510032621 | 8 | 301 | 3.2 | 6.4 | 0.00 | 1.12 | 0.03 | 93 | 1047.3 |
| 20260510032604 | 8 | 301 | 3.2 | 6.4 | 0.00 | 1.12 | 0.03 | 93 | 1047.3 |
| 20260510032339 | 8 | 301 | 3.2 | 6.4 | 0.00 | 1.12 | 0.03 | 93 | 1047.3 |
| 20260510032328 | 8 | 301 | 3.2 | 6.4 | 0.00 | 1.12 | 0.03 | 93 | 1047.3 |
| 20260510032318 | 8 | 301 | 3.2 | 6.4 | 0.00 | 1.12 | 0.03 | 93 | 1047.3 |
| 20260510032051 | 8 | 301 | 3.2 | 6.4 | 0.00 | 1.12 | 0.03 | 93 | 1047.3 |
| 20260510031729 | 8 | 302 | 3.2 | 4.8 | 0.00 | 1.12 | 0.03 | 93 | 1047.3 |
| 20260510031629 | 8 | 303 | 3.2 | 4.8 | 0.00 | 1.12 | 0.03 | 93 | 1047.3 |
| 20260510031617 | 8 | 302 | 3.2 | 4.8 | 0.00 | 1.12 | 0.03 | 93 | 1047.3 |
| 20260510031607 | 8 | 303 | 3.2 | 4.8 | 0.00 | 1.12 | 0.03 | 93 | 1047.3 |
| 20260510031555 | 8 | 302 | 3.2 | 4.8 | 0.00 | 1.12 | 0.03 | 93 | 1047.3 |
| 20260510031253 | 8 | 302 | 3.2 | 4.8 | 0.00 | 1.12 | 0.03 | 93 | 1047.3 |
| 20260510031247 | 8 | 302 | 3.2 | 4.8 | 0.00 | 1.12 | 0.03 | 93 | 1047.3 |
| 20260510031232 | 8 | 302 | 3.2 | 4.8 | 0.00 | 1.12 | 0.03 | 93 | 1047.3 |
| 20260510030928 | 8 | 302 | 3.2 | 4.8 | 0.00 | 1.12 | 0.03 | 93 | 1047.3 |
| 20260510030829 | 8 | 302 | 3.2 | 4.8 | 0.00 | 1.12 | 0.03 | 93 | 1047.3 |
| 20260510030729 | 8 | 303 | 3.2 | 4.8 | 0.00 | 1.12 | 0.03 | 93 | 1047.3 |
| 20260510030629 | 8 | 302 | 3.2 | 4.8 | 0.00 | 1.12 | 0.03 | 93 | 1047.3 |
| 20260510030608 | 8 | 302 | 3.2 | 4.8 | 0.00 | 1.12 | 0.03 | 93 | 1047.3 |
| 20260510030555 | 8 | 302 | 3.2 | 4.8 | 0.00 | 1.12 | 0.03 | 93 | 1047.3 |
| 20260510030315 | 8 | 302 | 3.2 | 4.8 | 0.00 | 1.12 | 0.03 | 93 | 1047.3 |
| 20260510030018 | 8 | 302 | 3.2 | 4.8 | 0.00 | 1.12 | 0.03 | 93 | 1047.4 |
| 20260510025927 | 8 | 302 | 3.2 | 4.8 | 0.00 | 1.12 | 0.03 | 93 | 1047.3 |
| 20260510025827 | 8 | 302 | 3.2 | 4.8 | 0.00 | 1.12 | 0.03 | 93 | 1047.4 |
| 20260510025726 | 8 | 303 | 3.2 | 4.8 | 0.00 | 1.12 | 0.03 | 93 | 1047.4 |
| 20260510025713 | 8 | 303 | 3.2 | 4.8 | 0.00 | 1.12 | 0.03 | 93 | 1047.4 |
| 20260510025706 | 8 | 302 | 3.2 | 4.8 | 0.00 | 1.12 | 0.03 | 93 | 1047.4 |
| 20260510025658 | 8 | 303 | 3.2 | 4.8 | 0.00 | 1.12 | 0.03 | 93 | 1047.4 |
| 20260510025323 | 8 | 303 | 3.2 | 4.8 | 0.00 | 1.12 | 0.03 | 93 | 1047.4 |
| 20260510025250 | 8 | 302 | 3.2 | 4.8 | 0.00 | 1.12 | 0.03 | 93 | 1047.4 |
| 20260510025243 | 8 | 303 | 3.2 | 4.8 | 0.00 | 1.12 | 0.03 | 93 | 1047.4 |
| 20260510025229 | 8 | 303 | 3.2 | 4.8 | 0.00 | 1.12 | 0.03 | 93 | 1047.5 |
| 20260510024916 | 8 | 302 | 3.2 | 4.8 | 0.00 | 1.12 | 0.03 | 93 | 1047.4 |
| 20260510024813 | 8 | 303 | 3.2 | 4.8 | 0.00 | 1.12 | 0.03 | 93 | 1047.4 |
| 20260510024713 | 8 | 302 | 3.2 | 4.8 | 0.00 | 1.12 | 0.03 | 93 | 1047.5 |
| 20260510024611 | 8 | 302 | 3.2 | 4.8 | 0.00 | 1.12 | 0.03 | 93 | 1047.5 |
| 20260510024515 | 8 | 302 | 3.2 | 4.8 | 0.00 | 1.12 | 0.03 | 93 | 1047.4 |
| 20260510024409 | 8 | 302 | 3.2 | 4.8 | 0.00 | 1.12 | 0.03 | 93 | 1047.4 |
| 20260510024303 | 8 | 303 | 3.2 | 4.8 | 0.00 | 1.12 | 0.03 | 93 | 1047.4 |
| 20260510024249 | 8 | 302 | 3.2 | 4.8 | 0.00 | 1.12 | 0.03 | 93 | 1047.4 |
| 20260510024238 | 8 | 303 | 3.2 | 4.8 | 0.00 | 1.12 | 0.03 | 93 | 1047.4 |
| 20260510024003 | 8 | 302 | 3.2 | 4.8 | 0.00 | 1.12 | 0.03 | 93 | 1047.4 |
| 20260510023904 | 8 | 302 | 3.2 | 4.8 | 0.00 | 1.12 | 0.03 | 93 | 1047.4 |
| 20260510023803 | 8 | 303 | 3.2 | 4.8 | 0.00 | 1.12 | 0.03 | 93 | 1047.4 |
| 20260510023702 | 8 | 302 | 3.2 | 4.8 | 0.00 | 1.12 | 0.03 | 93 | 1047.4 |
| 20260510023603 | 8 | 303 | 3.2 | 4.8 | 0.00 | 1.12 | 0.03 | 93 | 1047.4 |
| 20260510023514 | 8 | 302 | 3.2 | 4.8 | 0.00 | 1.12 | 0.03 | 93 | 1047.4 |
| 20260510023503 | 8 | 359 | 3.2 | 4.8 | 0.00 | 1.12 | 0.03 | 93 | 1047.4 |
| 20260510023403 | 8 | 303 | 3.2 | 4.8 | 0.00 | 1.12 | 0.03 | 93 | 1047.4 |
| 20260510023309 | 8 | 303 | 3.2 | 4.8 | 0.00 | 1.12 | 0.03 | 93 | 1047.5 |
| 20260510023301 | 8 | 303 | 3.2 | 4.8 | 0.00 | 1.12 | 0.03 | 93 | 1047.5 |
| 20260510023250 | 8 | 302 | 3.2 | 4.8 | 0.00 | 1.12 | 0.03 | 93 | 1047.5 |
| 20260510023001 | 8 | 303 | 3.2 | 4.8 | 0.00 | 1.12 | 0.03 | 93 | 1047.4 |
| 20260510022903 | 8 | 302 | 3.2 | 4.8 | 0.00 | 1.12 | 0.03 | 93 | 1047.5 |
| 20260510022801 | 8 | 302 | 3.2 | 4.8 | 0.00 | 1.12 | 0.03 | 93 | 1047.5 |
| 20260510022701 | 8 | 302 | 3.2 | 4.8 | 0.00 | 1.12 | 0.03 | 93 | 1047.5 |
| 20260510022600 | 8 | 303 | 3.2 | 4.8 | 0.00 | 1.12 | 0.03 | 93 | 1047.5 |
| 20260510022513 | 8 | 303 | 3.2 | 4.8 | 0.00 | 1.12 | 0.03 | 93 | 1047.5 |
| 20260510022500 | 8 | 302 | 3.2 | 4.8 | 0.00 | 1.12 | 0.03 | 93 | 1047.5 |
| 20260510022402 | 8 | 302 | 3.2 | 6.4 | 0.00 | 1.12 | 0.03 | 93 | 1047.5 |
| 20260510022301 | 8 | 303 | 3.2 | 6.4 | 0.00 | 1.12 | 0.03 | 93 | 1047.5 |
| 20260510022243 | 8 | 302 | 3.2 | 6.4 | 0.00 | 1.12 | 0.03 | 93 | 1047.5 |
| 20260510022232 | 8 | 303 | 3.2 | 6.4 | 0.00 | 1.12 | 0.03 | 93 | 1047.6 |
| 20260510022000 | 8 | 303 | 3.2 | 6.4 | 0.00 | 1.12 | 0.03 | 93 | 1047.6 |
| 20260510021933 | 8 | 302 | 3.2 | 6.4 | 0.00 | 1.12 | 0.03 | 93 | 1047.6 |
| 20260510021924 | 8 | 303 | 3.2 | 6.4 | 0.00 | 1.12 | 0.03 | 93 | 1047.6 |
| 20260510021601 | 8 | 302 | 3.2 | 6.4 | 0.00 | 1.12 | 0.03 | 93 | 1047.7 |
| 20260510021512 | 8 | 303 | 3.2 | 6.4 | 0.00 | 1.12 | 0.03 | 93 | 1047.6 |
| 20260510021501 | 8 | 302 | 3.2 | 6.4 | 0.00 | 1.12 | 0.03 | 93 | 1047.6 |
| 20260510021359 | 8 | 303 | 3.2 | 6.4 | 0.00 | 1.12 | 0.03 | 93 | 1047.6 |
| 20260510021323 | 9 | 303 | 3.2 | 4.8 | 0.00 | 1.12 | 0.03 | 93 | 1047.6 |
| 20260510021315 | 9 | 302 | 3.2 | 4.8 | 0.00 | 1.12 | 0.03 | 93 | 1047.6 |
| 20260510021015 | 9 | 303 | 3.2 | 4.8 | 0.00 | 1.12 | 0.03 | 93 | 1047.6 |
| 20260510020954 | 9 | 303 | 3.2 | 4.8 | 0.00 | 1.12 | 0.03 | 93 | 1047.6 |
| 20260510020854 | 9 | 302 | 3.2 | 6.4 | 0.00 | 1.12 | 0.03 | 93 | 1047.7 |
| 20260510020755 | 9 | 302 | 3.2 | 6.4 | 0.00 | 1.12 | 0.03 | 93 | 1047.6 |
| 20260510020655 | 9 | 359 | 3.2 | 6.4 | 0.00 | 1.12 | 0.03 | 93 | 1047.7 |
| 20260510020529 | 9 | 302 | 3.2 | 6.4 | 0.00 | 1.12 | 0.03 | 93 | 1047.7 |
| 20260510020522 | 9 | 302 | 3.2 | 6.4 | 0.00 | 1.12 | 0.03 | 93 | 1047.7 |
| 20260510020512 | 9 | 303 | 3.2 | 6.4 | 0.00 | 1.12 | 0.03 | 93 | 1047.7 |
| 20260510020200 | 9 | 303 | 3.2 | 6.4 | 0.00 | 1.12 | 0.03 | 93 | 1047.6 |
| 20260510020152 | 9 | 302 | 3.2 | 6.4 | 0.00 | 1.12 | 0.03 | 93 | 1047.6 |
| 20260510020140 | 9 | 302 | 4.8 | 6.4 | 0.00 | 1.12 | 0.03 | 93 | 1047.6 |
| 20260510020129 | 9 | 302 | 4.8 | 6.4 | 0.00 | 1.12 | 0.03 | 93 | 1047.6 |
| 20260510015753 | 9 | 302 | 4.8 | 6.4 | 0.00 | 1.12 | 0.03 | 93 | 1047.6 |
| 20260510015653 | 9 | 302 | 4.8 | 6.4 | 0.00 | 1.12 | 0.03 | 93 | 1047.6 |
| 20260510015552 | 9 | 302 | 4.8 | 6.4 | 0.00 | 1.12 | 0.03 | 93 | 1047.6 |
| 20260510015512 | 9 | 302 | 4.8 | 6.4 | 0.00 | 1.12 | 0.03 | 93 | 1047.6 |
| 20260510015500 | 9 | 302 | 4.8 | 6.4 | 0.00 | 1.12 | 0.03 | 93 | 1047.6 |
| 20260510015450 | 9 | 303 | 4.8 | 6.4 | 0.00 | 1.12 | 0.03 | 93 | 1047.6 |
| 20260510015443 | 9 | 303 | 4.8 | 6.4 | 0.00 | 1.12 | 0.03 | 93 | 1047.6 |
| 20260510015205 | 9 | 303 | 4.8 | 6.4 | 0.00 | 1.12 | 0.03 | 93 | 1047.6 |
| 20260510015156 | 9 | 303 | 4.8 | 6.4 | 0.00 | 1.12 | 0.03 | 93 | 1047.5 |
| 20260510015147 | 9 | 302 | 4.8 | 6.4 | 0.00 | 1.12 | 0.03 | 93 | 1047.5 |
| 20260510015125 | 9 | 302 | 4.8 | 6.4 | 0.00 | 1.12 | 0.03 | 93 | 1047.5 |
| 20260510015117 | 9 | 303 | 4.8 | 6.4 | 0.00 | 1.12 | 0.03 | 93 | 1047.6 |
| 20260510014848 | 9 | 303 | 4.8 | 6.4 | 0.00 | 1.12 | 0.03 | 93 | 1047.6 |
| 20260510014623 | 9 | 302 | 3.2 | 6.4 | 0.00 | 1.12 | 0.03 | 93 | 1047.5 |
| 20260510014613 | 9 | 302 | 3.2 | 6.4 | 0.00 | 1.12 | 0.03 | 93 | 1047.6 |
| 20260510014605 | 9 | 302 | 3.2 | 6.4 | 0.00 | 1.12 | 0.03 | 93 | 1047.6 |
| 20260510014337 | 9 | 302 | 3.2 | 4.8 | 0.00 | 1.12 | 0.03 | 93 | 1047.6 |
| 20260510014326 | 9 | 303 | 3.2 | 4.8 | 0.00 | 1.12 | 0.03 | 93 | 1047.7 |
| 20260510013747 | 9 | 302 | 3.2 | 6.4 | 0.00 | 1.12 | 0.03 | 93 | 1047.6 |
| 20260510013647 | 9 | 303 | 3.2 | 6.4 | 0.00 | 1.12 | 0.03 | 93 | 1047.6 |
| 20260510013546 | 9 | 303 | 3.2 | 6.4 | 0.03 | 1.12 | 0.03 | 93 | 1047.6 |
| 20260510013512 | 9 | 302 | 3.2 | 6.4 | 0.03 | 1.12 | 0.03 | 93 | 1047.6 |
| 20260510013447 | 9 | 302 | 3.2 | 6.4 | 0.03 | 1.12 | 0.03 | 93 | 1047.6 |
| 20260510013346 | 9 | 303 | 3.2 | 6.4 | 0.03 | 1.12 | 0.03 | 93 | 1047.6 |
| 20260510013246 | 9 | 303 | 3.2 | 6.4 | 0.03 | 1.12 | 0.03 | 93 | 1047.6 |
| 20260510013147 | 9 | 302 | 3.2 | 6.4 | 0.03 | 1.12 | 0.03 | 93 | 1047.6 |
| 20260510013019 | 9 | 302 | 3.2 | 6.4 | 0.03 | 1.12 | 0.03 | 93 | 1047.6 |
| 20260510013012 | 9 | 302 | 3.2 | 6.4 | 0.03 | 1.12 | 0.03 | 93 | 1047.7 |
| 20260510013002 | 9 | 303 | 3.2 | 6.4 | 0.03 | 1.12 | 0.03 | 93 | 1047.7 |
| 20260510012642 | 9 | 304 | 3.2 | 6.4 | 0.03 | 1.12 | 0.03 | 93 | 1047.6 |
| 20260510012543 | 9 | 305 | 3.2 | 4.8 | 0.03 | 1.12 | 0.03 | 93 | 1047.6 |
| 20260510012509 | 9 | 304 | 3.2 | 6.4 | 0.03 | 1.12 | 0.03 | 93 | 1047.6 |
| 20260510012443 | 9 | 304 | 3.2 | 6.4 | 0.03 | 1.12 | 0.03 | 93 | 1047.6 |
| 20260510012342 | 9 | 304 | 3.2 | 6.4 | 0.03 | 1.12 | 0.03 | 93 | 1047.5 |
| 20260510012243 | 9 | 304 | 3.2 | 6.4 | 0.03 | 1.12 | 0.03 | 93 | 1047.5 |
| 20260510012143 | 9 | 304 | 3.2 | 6.4 | 0.03 | 1.12 | 0.03 | 93 | 1047.5 |
| 20260510012044 | 9 | 304 | 3.2 | 6.4 | 0.03 | 1.12 | 0.03 | 93 | 1047.5 |
| 20260510012010 | 9 | 304 | 3.2 | 6.4 | 0.03 | 1.12 | 0.03 | 93 | 1047.4 |
| 20260510011943 | 9 | 304 | 3.2 | 6.4 | 0.03 | 1.12 | 0.03 | 93 | 1047.4 |
| 20260510011843 | 9 | 304 | 3.2 | 6.4 | 0.03 | 1.12 | 0.03 | 93 | 1047.5 |
| 20260510011742 | 9 | 304 | 3.2 | 6.4 | 0.03 | 1.12 | 0.03 | 93 | 1047.4 |
| 20260510011642 | 9 | 304 | 3.2 | 6.4 | 0.03 | 1.12 | 0.03 | 93 | 1047.5 |
| 20260510011543 | 9 | 304 | 3.2 | 6.4 | 0.03 | 1.12 | 0.03 | 93 | 1047.5 |
| 20260510011509 | 9 | 304 | 3.2 | 4.8 | 0.03 | 1.12 | 0.03 | 93 | 1047.5 |
| 20260510011443 | 9 | 304 | 3.2 | 4.8 | 0.03 | 1.12 | 0.03 | 93 | 1047.5 |
| 20260510011342 | 9 | 304 | 3.2 | 4.8 | 0.03 | 1.12 | 0.03 | 93 | 1047.5 |
| 20260510011310 | 9 | 304 | 3.2 | 4.8 | 0.03 | 1.12 | 0.03 | 93 | 1047.4 |
| 20260510011300 | 10 | 304 | 3.2 | 4.8 | 0.03 | 1.12 | 0.03 | 93 | 1047.4 |
| 20260510011011 | 10 | 304 | 3.2 | 4.8 | 0.03 | 1.12 | 0.03 | 93 | 1047.4 |
| 20260510010938 | 10 | 304 | 3.2 | 4.8 | 0.03 | 1.12 | 0.03 | 93 | 1047.4 |
| 20260510010838 | 10 | 304 | 3.2 | 6.4 | 0.03 | 1.12 | 0.03 | 93 | 1047.4 |
| 20260510010803 | 10 | 305 | 3.2 | 6.4 | 0.03 | 1.12 | 0.03 | 93 | 1047.4 |
| 20260510010753 | 10 | 304 | 3.2 | 6.4 | 0.03 | 1.12 | 0.03 | 93 | 1047.4 |
| 20260510010723 | 10 | 304 | 3.2 | 6.4 | 0.03 | 1.12 | 0.03 | 93 | 1047.3 |
| 20260510010459 | 10 | 304 | 3.2 | 6.4 | 0.03 | 1.12 | 0.03 | 93 | 1047.4 |
| 20260510010137 | 10 | 304 | 3.2 | 6.4 | 0.03 | 1.12 | 0.03 | 93 | 1047.4 |
| 20260510010011 | 10 | 304 | 3.2 | 6.4 | 0.03 | 1.12 | 0.03 | 93 | 1047.4 |
| 20260510005952 | 10 | 304 | 4.8 | 6.4 | 0.03 | 1.12 | 0.03 | 93 | 1047.4 |
| 20260510005944 | 10 | 305 | 4.8 | 6.4 | 0.03 | 1.12 | 0.03 | 93 | 1047.4 |
| 20260510005937 | 10 | 304 | 4.8 | 6.4 | 0.03 | 1.12 | 0.03 | 93 | 1047.4 |
| 20260510005650 | 10 | 305 | 4.8 | 6.4 | 0.03 | 1.12 | 0.03 | 93 | 1047.3 |
| 20260510005641 | 10 | 305 | 4.8 | 6.4 | 0.03 | 1.12 | 0.03 | 93 | 1047.4 |
| 20260510005633 | 10 | 305 | 4.8 | 8.0 | 0.03 | 1.12 | 0.03 | 93 | 1047.4 |
| 20260510005625 | 10 | 304 | 4.8 | 8.0 | 0.03 | 1.12 | 0.03 | 93 | 1047.4 |
| 20260510005352 | 10 | 304 | 3.2 | 8.0 | 0.03 | 1.12 | 0.03 | 93 | 1047.4 |
| 20260510005118 | 10 | 305 | 3.2 | 8.0 | 0.03 | 1.12 | 0.03 | 93 | 1047.4 |
| 20260510004849 | 10 | 305 | 3.2 | 8.0 | 0.03 | 1.12 | 0.03 | 93 | 1047.4 |
| 20260510004836 | 10 | 305 | 3.2 | 8.0 | 0.03 | 1.12 | 0.03 | 93 | 1047.5 |
| 20260510004828 | 10 | 306 | 3.2 | 8.0 | 0.03 | 1.12 | 0.03 | 93 | 1047.5 |
| 20260510004557 | 10 | 305 | 3.2 | 8.0 | 0.03 | 1.12 | 0.03 | 93 | 1047.5 |
| 20260510004232 | 10 | 305 | 3.2 | 6.4 | 0.03 | 1.12 | 0.03 | 93 | 1047.6 |
| 20260510004132 | 10 | 306 | 3.2 | 6.4 | 0.03 | 1.12 | 0.03 | 93 | 1047.6 |
| 20260510004033 | 10 | 306 | 3.2 | 6.4 | 0.03 | 1.12 | 0.03 | 93 | 1047.6 |
| 20260510004010 | 10 | 305 | 3.2 | 6.4 | 0.03 | 1.12 | 0.03 | 93 | 1047.6 |
| 20260510003932 | 10 | 305 | 3.2 | 6.4 | 0.03 | 1.12 | 0.03 | 93 | 1047.6 |
| 20260510003833 | 10 | 306 | 3.2 | 6.4 | 0.03 | 1.12 | 0.03 | 93 | 1047.7 |
| 20260510003732 | 10 | 305 | 3.2 | 6.4 | 0.03 | 1.12 | 0.03 | 93 | 1047.7 |
| 20260510003710 | 10 | 306 | 3.2 | 6.4 | 0.03 | 1.12 | 0.00 | 93 | 1047.7 |
| 20260510003652 | 10 | 305 | 4.8 | 6.4 | 0.00 | 1.09 | 0.00 | 93 | 1047.7 |
| 20260510003643 | 10 | 305 | 4.8 | 6.4 | 0.00 | 1.09 | 0.00 | 93 | 1047.7 |
| 20260510003634 | 10 | 305 | 4.8 | 6.4 | 0.00 | 1.09 | 0.00 | 93 | 1047.8 |
| 20260510003626 | 10 | 306 | 4.8 | 6.4 | 0.00 | 1.09 | 0.00 | 93 | 1047.8 |
| 20260510003136 | 10 | 306 | 4.8 | 6.4 | 0.00 | 1.09 | 0.00 | 93 | 1047.9 |
| 20260510003130 | 10 | 306 | 4.8 | 6.4 | 0.00 | 1.09 | 0.00 | 93 | 1047.8 |
| 20260510003107 | 10 | 306 | 4.8 | 6.4 | 0.00 | 1.09 | 0.00 | 93 | 1047.8 |
| 20260510003100 | 10 | 307 | 4.8 | 6.4 | 0.00 | 1.09 | 0.00 | 93 | 1047.8 |
| 20260510003048 | 10 | 306 | 4.8 | 6.4 | 0.00 | 1.09 | 0.00 | 93 | 1047.7 |
| 20260510003027 | 10 | 306 | 3.2 | 6.4 | 0.00 | 1.09 | 0.00 | 93 | 1047.8 |
| 20260510002533 | 10 | 306 | 3.2 | 6.4 | 0.00 | 1.09 | 0.00 | 93 | 1047.7 |
| 20260510002308 | 10 | 307 | 3.2 | 6.4 | 0.00 | 1.09 | 0.00 | 93 | 1047.8 |
| 20260510002014 | 10 | 307 | 3.2 | 6.4 | 0.00 | 1.09 | 0.00 | 93 | 1047.8 |
| 20260510002006 | 10 | 307 | 3.2 | 4.8 | 0.00 | 1.09 | 0.00 | 93 | 1047.8 |
| 20260510001958 | 10 | 307 | 3.2 | 4.8 | 0.00 | 1.09 | 0.00 | 93 | 1047.8 |
| 20260510001634 | 10 | 307 | 3.2 | 3.2 | 0.00 | 1.09 | 0.00 | 93 | 1047.8 |
| 20260510001507 | 10 | 307 | 1.6 | 3.2 | 0.00 | 1.09 | 0.00 | 93 | 1047.8 |
| 20260510001430 | 10 | 307 | 1.6 | 3.2 | 0.00 | 1.09 | 0.00 | 93 | 1047.8 |
| 20260510001329 | 10 | 306 | 1.6 | 3.2 | 0.00 | 1.09 | 0.00 | 93 | 1047.8 |
| 20260510001229 | 10 | 307 | 1.6 | 3.2 | 0.00 | 1.09 | 0.00 | 93 | 1047.9 |
| 20260510001128 | 10 | 307 | 1.6 | 3.2 | 0.00 | 1.09 | 0.00 | 93 | 1047.9 |
| 20260510001059 | 10 | 307 | 1.6 | 3.2 | 0.00 | 1.09 | 0.00 | 93 | 1047.9 |
| 20260510001052 | 10 | 307 | 1.6 | 3.2 | 0.00 | 1.09 | 0.00 | 93 | 1047.9 |
| 20260510000728 | 10 | 307 | 1.6 | 3.2 | 0.00 | 1.09 | 0.00 | 93 | 1047.9 |
| 20260510000629 | 10 | 307 | 0.0 | 3.2 | 0.00 | 1.09 | 0.00 | 93 | 1047.9 |
| 20260510000528 | 10 | 308 | 0.0 | 3.2 | 0.00 | 1.09 | 0.00 | 93 | 1047.9 |
| 20260510000507 | 10 | 307 | 0.0 | 3.2 | 0.00 | 1.09 | 0.00 | 93 | 1047.9 |
| 20260510000429 | 10 | 307 | 0.0 | 3.2 | 0.00 | 1.09 | 0.00 | 93 | 1047.9 |
| 20260510000328 | 10 | 307 | 1.6 | 3.2 | 0.00 | 1.09 | 0.00 | 93 | 1047.9 |
| 20260510000229 | 10 | 307 | 1.6 | 3.2 | 0.00 | 1.09 | 0.00 | 93 | 1047.9 |
| 20260510000129 | 10 | 307 | 1.6 | 3.2 | 0.00 | 1.09 | 0.00 | 93 | 1047.9 |
| 20260510000028 | 10 | 307 | 1.6 | 4.8 | 0.00 | 1.09 | 0.00 | 93 | 1047.9 |
| 20260510000009 | 10 | 359 | 1.6 | 4.8 | 0.00 | 1.09 | 0.00 | 93 | 1047.9 |
| 20260509235928 | 10 | 307 | 1.6 | 4.8 | 0.00 | 1.09 | 0.00 | 93 | 1048.0 |
| 20260509235829 | 10 | 307 | 1.6 | 4.8 | 0.00 | 1.09 | 0.00 | 93 | 1048.0 |
| 20260509235728 | 10 | 307 | 1.6 | 4.8 | 0.00 | 1.09 | 0.00 | 93 | 1048.0 |
| 20260509235629 | 10 | 307 | 3.2 | 4.8 | 0.00 | 1.09 | 0.00 | 93 | 1048.0 |
| 20260509235529 | 10 | 359 | 3.2 | 4.8 | 0.00 | 1.09 | 0.00 | 93 | 1048.1 |
| 20260509235507 | 10 | 307 | 3.2 | 4.8 | 0.00 | 1.09 | 0.00 | 93 | 1048.1 |
| 20260509235429 | 10 | 307 | 3.2 | 4.8 | 0.00 | 1.09 | 0.00 | 93 | 1048.1 |
| 20260509235328 | 10 | 307 | 3.2 | 4.8 | 0.00 | 1.09 | 0.00 | 93 | 1048.1 |
| 20260509235228 | 10 | 307 | 3.2 | 4.8 | 0.00 | 1.09 | 0.00 | 93 | 1048.1 |
| 20260509235129 | 10 | 307 | 3.2 | 4.8 | 0.00 | 1.09 | 0.00 | 93 | 1048.1 |
| 20260509235059 | 10 | 307 | 3.2 | 4.8 | 0.00 | 1.09 | 0.00 | 93 | 1048.1 |
| 20260509235051 | 10 | 306 | 3.2 | 4.8 | 0.00 | 1.09 | 0.00 | 93 | 1048.1 |
| 20260509234729 | 10 | 307 | 3.2 | 4.8 | 0.00 | 1.09 | 0.00 | 93 | 1048.2 |
| 20260509234715 | 10 | 307 | 3.2 | 4.8 | 0.00 | 1.09 | 0.00 | 93 | 1048.2 |
| 20260509234653 | 10 | 307 | 3.2 | 4.8 | 0.00 | 1.09 | 0.00 | 93 | 1048.2 |
| 20260509234328 | 10 | 307 | 3.2 | 4.8 | 0.00 | 1.09 | 0.00 | 93 | 1048.2 |
| 20260509234245 | 10 | 306 | 3.2 | 4.8 | 0.00 | 1.09 | 0.00 | 93 | 1048.2 |
| 20260509234237 | 10 | 307 | 3.2 | 4.8 | 0.00 | 1.09 | 0.00 | 93 | 1048.2 |
| 20260509234226 | 10 | 307 | 3.2 | 4.8 | 0.00 | 1.09 | 0.00 | 93 | 1048.2 |
| 20260509233951 | 10 | 306 | 3.2 | 4.8 | 0.00 | 1.09 | 0.00 | 93 | 1048.2 |
| 20260509233943 | 10 | 307 | 3.2 | 4.8 | 0.00 | 1.09 | 0.00 | 93 | 1048.3 |
| 20260509233928 | 10 | 307 | 3.2 | 4.8 | 0.00 | 1.09 | 0.00 | 93 | 1048.4 |
| 20260509233649 | 10 | 307 | 3.2 | 8.0 | 0.00 | 1.09 | 0.00 | 93 | 1048.4 |
| 20260509233352 | 10 | 307 | 3.2 | 8.0 | 0.00 | 1.09 | 0.00 | 93 | 1048.4 |
| 20260509233346 | 10 | 306 | 3.2 | 8.0 | 0.00 | 1.09 | 0.00 | 93 | 1048.4 |
| 20260509233006 | 10 | 307 | 4.8 | 8.0 | 0.00 | 1.09 | 0.00 | 93 | 1048.4 |
| 20260509232916 | 10 | 306 | 4.8 | 8.0 | 0.00 | 1.09 | 0.00 | 93 | 1048.4 |
| 20260509232817 | 10 | 307 | 4.8 | 8.0 | 0.00 | 1.09 | 0.00 | 93 | 1048.4 |
| 20260509232717 | 10 | 359 | 4.8 | 8.0 | 0.00 | 1.09 | 0.00 | 93 | 1048.4 |
| 20260509232616 | 10 | 308 | 3.2 | 8.0 | 0.00 | 1.09 | 0.00 | 93 | 1048.4 |
| 20260509232513 | 10 | 308 | 3.2 | 8.0 | 0.00 | 1.09 | 0.00 | 93 | 1048.4 |
| 20260509232412 | 10 | 308 | 3.2 | 8.0 | 0.00 | 1.09 | 0.00 | 93 | 1048.4 |
| 20260509232313 | 10 | 308 | 3.2 | 8.0 | 0.00 | 1.09 | 0.00 | 93 | 1048.4 |
| 20260509232212 | 10 | 308 | 3.2 | 8.0 | 0.00 | 1.09 | 0.00 | 93 | 1048.4 |
| 20260509232112 | 10 | 310 | 3.2 | 6.4 | 0.00 | 1.09 | 0.00 | 93 | 1048.4 |
| 20260509232006 | 10 | 310 | 3.2 | 4.8 | 0.00 | 1.09 | 0.00 | 93 | 1048.4 |
| 20260509231908 | 10 | 359 | 3.2 | 4.8 | 0.00 | 1.09 | 0.00 | 93 | 1048.4 |
| 20260509231808 | 10 | 310 | 3.2 | 4.8 | 0.00 | 1.09 | 0.00 | 93 | 1048.3 |
| 20260509231708 | 10 | 310 | 3.2 | 4.8 | 0.00 | 1.09 | 0.00 | 93 | 1048.3 |
| 20260509231609 | 10 | 310 | 3.2 | 4.8 | 0.00 | 1.09 | 0.00 | 93 | 1048.3 |
| 20260509231515 | 10 | 310 | 3.2 | 4.8 | 0.00 | 1.09 | 0.00 | 93 | 1048.3 |
| 20260509231503 | 10 | 310 | 3.2 | 4.8 | 0.00 | 1.09 | 0.00 | 93 | 1048.3 |
| 20260509231408 | 10 | 310 | 3.2 | 4.8 | 0.00 | 1.09 | 0.00 | 93 | 1048.3 |
| 20260509231306 | 10 | 310 | 3.2 | 6.4 | 0.00 | 1.09 | 0.00 | 93 | 1048.3 |
| 20260509231209 | 10 | 310 | 3.2 | 6.4 | 0.00 | 1.09 | 0.00 | 93 | 1048.3 |
| 20260509231145 | 10 | 310 | 3.2 | 6.4 | 0.00 | 1.09 | 0.00 | 93 | 1048.3 |
| 20260509231140 | 10 | 310 | 3.2 | 6.4 | 0.00 | 1.09 | 0.00 | 93 | 1048.3 |
| 20260509231130 | 10 | 310 | 3.2 | 6.4 | 0.00 | 1.09 | 0.00 | 93 | 1048.3 |
| 20260509230804 | 11 | 310 | 3.2 | 6.4 | 0.00 | 1.09 | 0.00 | 93 | 1048.4 |
| 20260509230753 | 11 | 310 | 3.2 | 6.4 | 0.00 | 1.09 | 0.00 | 93 | 1048.4 |
| 20260509230747 | 11 | 359 | 3.2 | 6.4 | 0.00 | 1.09 | 0.00 | 93 | 1048.4 |
| 20260509230510 | 11 | 310 | 3.2 | 6.4 | 0.00 | 1.09 | 0.00 | 93 | 1048.4 |
| 20260509230417 | 11 | 310 | 3.2 | 6.4 | 0.00 | 1.09 | 0.00 | 93 | 1048.4 |
| 20260509230304 | 11 | 310 | 3.2 | 6.4 | 0.00 | 1.09 | 0.00 | 93 | 1048.5 |
| 20260509230202 | 11 | 310 | 3.2 | 6.4 | 0.00 | 1.09 | 0.00 | 93 | 1048.4 |
| 20260509230006 | 11 | 310 | 3.2 | 6.4 | 0.00 | 1.09 | 0.00 | 93 | 1048.4 |
| 20260509225900 | 11 | 310 | 3.2 | 6.4 | 0.00 | 1.09 | 0.00 | 93 | 1048.4 |
| 20260509225758 | 11 | 310 | 3.2 | 6.4 | 0.00 | 1.09 | 0.00 | 93 | 1048.4 |
| 20260509225659 | 11 | 310 | 3.2 | 6.4 | 0.00 | 1.09 | 0.00 | 93 | 1048.4 |
| 20260509225557 | 11 | 310 | 3.2 | 6.4 | 0.00 | 1.09 | 0.00 | 93 | 1048.4 |
| 20260509225454 | 11 | 310 | 3.2 | 6.4 | 0.00 | 1.09 | 0.00 | 93 | 1048.4 |
| 20260509225355 | 11 | 310 | 3.2 | 6.4 | 0.00 | 1.09 | 0.00 | 93 | 1048.4 |
| 20260509225252 | 11 | 310 | 3.2 | 4.8 | 0.00 | 1.09 | 0.00 | 93 | 1048.4 |
| 20260509225152 | 11 | 310 | 3.2 | 4.8 | 0.00 | 1.09 | 0.00 | 93 | 1048.4 |
| 20260509225051 | 11 | 310 | 3.2 | 4.8 | 0.00 | 1.09 | 0.00 | 93 | 1048.4 |
| 20260509224949 | 11 | 310 | 3.2 | 6.4 | 0.00 | 1.09 | 0.00 | 93 | 1048.4 |
| 20260509224936 | 11 | 310 | 3.2 | 6.4 | 0.00 | 1.09 | 0.00 | 93 | 1048.4 |
| 20260509224928 | 11 | 310 | 3.2 | 6.4 | 0.00 | 1.09 | 0.00 | 93 | 1048.4 |
| 20260509224916 | 11 | 310 | 3.2 | 6.4 | 0.00 | 1.09 | 0.00 | 93 | 1048.5 |
| 20260509224907 | 11 | 310 | 3.2 | 6.4 | 0.00 | 1.09 | 0.00 | 93 | 1048.5 |
| 20260509224632 | 11 | 310 | 3.2 | 6.4 | 0.00 | 1.09 | 0.00 | 93 | 1048.5 |
| 20260509224622 | 11 | 310 | 3.2 | 6.4 | 0.00 | 1.09 | 0.00 | 93 | 1048.5 |
| 20260509224041 | 11 | 310 | 3.2 | 6.4 | 0.00 | 1.09 | 0.00 | 93 | 1048.5 |
| 20260509223941 | 11 | 310 | 3.2 | 6.4 | 0.00 | 1.09 | 0.00 | 93 | 1048.5 |
| 20260509223841 | 11 | 310 | 3.2 | 6.4 | 0.00 | 1.09 | 0.00 | 93 | 1048.5 |
| 20260509223808 | 11 | 310 | 3.2 | 6.4 | 0.00 | 1.09 | 0.00 | 93 | 1048.5 |
| 20260509223801 | 11 | 310 | 3.2 | 6.4 | 0.00 | 1.09 | 0.00 | 93 | 1048.5 |
| 20260509223459 | 11 | 310 | 3.2 | 6.4 | 0.00 | 1.09 | 0.00 | 93 | 1048.5 |
| 20260509223441 | 11 | 310 | 3.2 | 6.4 | 0.00 | 1.09 | 0.00 | 93 | 1048.4 |
| 20260509223340 | 11 | 310 | 3.2 | 6.4 | 0.00 | 1.09 | 0.00 | 93 | 1048.5 |
| 20260509223241 | 11 | 310 | 3.2 | 6.4 | 0.00 | 1.09 | 0.00 | 93 | 1048.5 |
| 20260509223143 | 11 | 310 | 3.2 | 6.4 | 0.00 | 1.09 | 0.00 | 93 | 1048.5 |
| 20260509223111 | 11 | 310 | 3.2 | 6.4 | 0.00 | 1.09 | 0.00 | 93 | 1048.5 |
| 20260509223053 | 11 | 310 | 3.2 | 6.4 | 0.00 | 1.09 | 0.00 | 93 | 1048.5 |
| 20260509222748 | 11 | 310 | 3.2 | 6.4 | 0.00 | 1.09 | 0.00 | 92 | 1048.5 |
| 20260509222740 | 11 | 310 | 3.2 | 6.4 | 0.00 | 1.09 | 0.00 | 93 | 1048.4 |
| 20260509222729 | 11 | 310 | 3.2 | 6.4 | 0.00 | 1.09 | 0.00 | 93 | 1048.4 |
| 20260509222717 | 11 | 310 | 3.2 | 4.8 | 0.00 | 1.09 | 0.00 | 93 | 1048.4 |
| 20260509222454 | 11 | 310 | 3.2 | 4.8 | 0.00 | 1.09 | 0.00 | 93 | 1048.4 |
| 20260509222131 | 11 | 310 | 3.2 | 4.8 | 0.00 | 1.09 | 0.00 | 93 | 1048.4 |
| 20260509222045 | 11 | 310 | 3.2 | 4.8 | 0.00 | 1.09 | 0.00 | 93 | 1048.4 |
| 20260509222028 | 11 | 310 | 3.2 | 4.8 | 0.00 | 1.09 | 0.00 | 92 | 1048.4 |
| 20260509222011 | 11 | 310 | 3.2 | 4.8 | 0.00 | 1.09 | 0.00 | 92 | 1048.3 |
| 20260509222002 | 11 | 312 | 3.2 | 4.8 | 0.00 | 1.09 | 0.00 | 92 | 1048.3 |
| 20260509221457 | 11 | 310 | 3.2 | 4.8 | 0.00 | 1.09 | 0.00 | 92 | 1048.3 |
| 20260509221411 | 11 | 310 | 3.2 | 4.8 | 0.00 | 1.09 | 0.00 | 92 | 1048.3 |
| 20260509221345 | 11 | 310 | 3.2 | 4.8 | 0.00 | 1.09 | 0.00 | 93 | 1048.3 |
| 20260509221337 | 11 | 310 | 3.2 | 4.8 | 0.00 | 1.09 | 0.00 | 93 | 1048.3 |
| 20260509221329 | 11 | 359 | 3.2 | 4.8 | 0.00 | 1.09 | 0.00 | 93 | 1048.3 |
| 20260509221320 | 11 | 312 | 3.2 | 4.8 | 0.00 | 1.09 | 0.00 | 93 | 1048.3 |
| 20260509221310 | 11 | 310 | 3.2 | 4.8 | 0.00 | 1.09 | 0.00 | 93 | 1048.3 |
| 20260509221040 | 11 | 310 | 3.2 | 4.8 | 0.00 | 1.09 | 0.00 | 93 | 1048.3 |
| 20260509220510 | 11 | 310 | 3.2 | 4.8 | 0.00 | 1.09 | 0.00 | 93 | 1048.3 |
| 20260509220457 | 11 | 310 | 3.2 | 4.8 | 0.00 | 1.09 | 0.00 | 93 | 1048.3 |
| 20260509220400 | 11 | 310 | 3.2 | 4.8 | 0.00 | 1.09 | 0.00 | 92 | 1048.3 |
| 20260509220259 | 11 | 310 | 3.2 | 4.8 | 0.00 | 1.09 | 0.00 | 92 | 1048.3 |
| 20260509220159 | 11 | 310 | 3.2 | 3.2 | 0.00 | 1.09 | 0.00 | 92 | 1048.3 |
| 20260509220127 | 11 | 310 | 3.2 | 4.8 | 0.00 | 1.09 | 0.00 | 92 | 1048.3 |
| 20260509220108 | 11 | 310 | 3.2 | 6.4 | 0.00 | 1.09 | 1.09 | 92 | 1048.3 |
| 20260509220054 | 11 | 310 | 3.2 | 6.4 | 0.00 | 1.09 | 1.09 | 92 | 1048.4 |
| 20260509220040 | 11 | 310 | 3.2 | 6.4 | 0.00 | 1.09 | 1.09 | 92 | 1048.4 |
| 20260509220031 | 11 | 310 | 3.2 | 6.4 | 0.00 | 1.09 | 1.09 | 92 | 1048.4 |
| 20260509215519 | 12 | 310 | 1.6 | 6.4 | 0.00 | 1.09 | 1.09 | 93 | 1048.4 |
| 20260509215500 | 12 | 310 | 1.6 | 6.4 | 0.00 | 1.09 | 1.09 | 93 | 1048.4 |
| 20260509215450 | 12 | 310 | 3.2 | 6.4 | 0.00 | 1.09 | 1.09 | 93 | 1048.4 |
| 20260509215220 | 12 | 310 | 1.6 | 4.8 | 0.00 | 1.09 | 1.09 | 93 | 1048.4 |
| 20260509214944 | 12 | 310 | 1.6 | 3.2 | 0.00 | 1.09 | 1.09 | 93 | 1048.4 |
| 20260509214929 | 12 | 310 | 1.6 | 3.2 | 0.00 | 1.09 | 1.09 | 93 | 1048.4 |
| 20260509214920 | 12 | 310 | 1.6 | 3.2 | 0.00 | 1.09 | 1.09 | 93 | 1048.4 |
| 20260509214644 | 12 | 310 | 1.6 | 3.2 | 0.00 | 1.09 | 1.09 | 92 | 1048.3 |
| 20260509214625 | 12 | 310 | 1.6 | 3.2 | 0.00 | 1.09 | 1.09 | 92 | 1048.3 |
| 20260509214356 | 12 | 310 | 1.6 | 3.2 | 0.00 | 1.09 | 1.09 | 92 | 1048.3 |
| 20260509214033 | 12 | 310 | 1.6 | 3.2 | 0.00 | 1.09 | 1.09 | 93 | 1048.3 |
| 20260509214007 | 12 | 310 | 1.6 | 3.2 | 0.00 | 1.09 | 1.09 | 93 | 1048.2 |
| 20260509213959 | 12 | 310 | 1.6 | 3.2 | 0.00 | 1.09 | 1.09 | 93 | 1048.2 |
| 20260509213632 | 12 | 310 | 3.2 | 4.8 | 0.00 | 1.09 | 1.09 | 93 | 1048.3 |
| 20260509213532 | 12 | 310 | 3.2 | 4.8 | 0.00 | 1.09 | 1.09 | 93 | 1048.3 |
| 20260509213431 | 12 | 310 | 3.2 | 4.8 | 0.00 | 1.09 | 1.09 | 93 | 1048.3 |
| 20260509213331 | 12 | 310 | 3.2 | 4.8 | 0.00 | 1.09 | 1.09 | 93 | 1048.3 |
| 20260509213231 | 12 | 310 | 3.2 | 4.8 | 0.00 | 1.09 | 1.09 | 93 | 1048.3 |
| 20260509213130 | 12 | 310 | 3.2 | 4.8 | 0.00 | 1.09 | 1.09 | 93 | 1048.3 |
| 20260509213030 | 12 | 310 | 3.2 | 4.8 | 0.00 | 1.09 | 1.09 | 93 | 1048.3 |
| 20260509213007 | 12 | 310 | 3.2 | 4.8 | 0.00 | 1.09 | 1.09 | 93 | 1048.3 |
| 20260509212959 | 12 | 311 | 3.2 | 4.8 | 0.00 | 1.09 | 1.09 | 93 | 1048.3 |
| 20260509212951 | 12 | 310 | 3.2 | 4.8 | 0.00 | 1.09 | 1.09 | 93 | 1048.3 |
| 20260509212628 | 12 | 310 | 1.6 | 4.8 | 0.00 | 1.09 | 1.09 | 93 | 1048.3 |
| 20260509212525 | 12 | 310 | 1.6 | 4.8 | 0.00 | 1.09 | 1.09 | 93 | 1048.3 |
| 20260509212425 | 12 | 310 | 1.6 | 4.8 | 0.00 | 1.09 | 1.09 | 93 | 1048.3 |
| 20260509212323 | 12 | 310 | 1.6 | 4.8 | 0.00 | 1.09 | 1.09 | 93 | 1048.4 |
| 20260509212222 | 12 | 310 | 1.6 | 3.2 | 0.00 | 1.09 | 1.09 | 93 | 1048.3 |
| 20260509212120 | 12 | 310 | 1.6 | 3.2 | 0.00 | 1.09 | 1.09 | 93 | 1048.3 |
| 20260509212024 | 12 | 310 | 1.6 | 3.2 | 0.00 | 1.09 | 1.09 | 93 | 1048.4 |
| 20260509211919 | 12 | 310 | 1.6 | 3.2 | 0.00 | 1.09 | 1.09 | 93 | 1048.4 |
| 20260509211818 | 12 | 310 | 1.6 | 3.2 | 0.00 | 1.09 | 1.09 | 93 | 1048.3 |
| 20260509211715 | 12 | 310 | 1.6 | 3.2 | 0.00 | 1.09 | 1.09 | 93 | 1048.4 |
| 20260509211610 | 12 | 310 | 1.6 | 3.2 | 0.00 | 1.09 | 1.09 | 93 | 1048.4 |
| 20260509211509 | 12 | 310 | 1.6 | 3.2 | 0.00 | 1.09 | 1.09 | 93 | 1048.3 |
| 20260509211410 | 12 | 310 | 1.6 | 3.2 | 0.00 | 1.09 | 1.09 | 93 | 1048.3 |
| 20260509211307 | 12 | 312 | 1.6 | 3.2 | 0.00 | 1.09 | 1.09 | 93 | 1048.3 |
| 20260509211204 | 12 | 310 | 1.6 | 3.2 | 0.00 | 1.09 | 1.09 | 93 | 1048.3 |
| 20260509211104 | 12 | 310 | 1.6 | 3.2 | 0.00 | 1.09 | 1.09 | 93 | 1048.3 |
| 20260509211003 | 12 | 310 | 1.6 | 3.2 | 0.00 | 1.09 | 1.09 | 93 | 1048.3 |
| 20260509210934 | 12 | 310 | 1.6 | 3.2 | 0.00 | 1.09 | 1.09 | 93 | 1048.3 |
| 20260509210928 | 12 | 310 | 1.6 | 3.2 | 0.00 | 1.09 | 1.09 | 93 | 1048.3 |
| 20260509210603 | 12 | 310 | 1.6 | 3.2 | 0.00 | 1.09 | 1.09 | 93 | 1048.2 |
| 20260509210525 | 12 | 310 | 1.6 | 3.2 | 0.00 | 1.09 | 1.09 | 93 | 1048.2 |
| 20260509210514 | 12 | 310 | 1.6 | 3.2 | 0.00 | 1.09 | 1.09 | 93 | 1048.2 |
| 20260509210507 | 12 | 310 | 1.6 | 4.8 | 0.00 | 1.09 | 1.09 | 93 | 1048.2 |
| 20260509210458 | 12 | 310 | 1.6 | 4.8 | 0.00 | 1.09 | 1.09 | 93 | 1048.2 |
| 20260509210446 | 12 | 310 | 3.2 | 4.8 | 0.00 | 1.09 | 1.09 | 93 | 1048.2 |
| 20260509205931 | 12 | 310 | 3.2 | 4.8 | 0.00 | 1.09 | 1.09 | 93 | 1048.2 |
| 20260509205923 | 12 | 310 | 3.2 | 4.8 | 0.00 | 1.09 | 1.09 | 92 | 1048.2 |
| 20260509205603 | 12 | 311 | 3.2 | 4.8 | 0.00 | 1.09 | 1.09 | 92 | 1048.2 |
| 20260509205511 | 12 | 310 | 3.2 | 4.8 | 0.00 | 1.09 | 1.09 | 92 | 1048.2 |
| 20260509205452 | 12 | 310 | 3.2 | 4.8 | 0.00 | 1.09 | 1.09 | 92 | 1048.2 |
| 20260509205442 | 12 | 310 | 3.2 | 4.8 | 0.00 | 1.09 | 1.09 | 92 | 1048.3 |
| 20260509205427 | 12 | 310 | 3.2 | 4.8 | 0.00 | 1.09 | 1.09 | 92 | 1048.2 |
| 20260509205418 | 12 | 310 | 3.2 | 4.8 | 0.00 | 1.09 | 1.09 | 92 | 1048.3 |
| 20260509205148 | 12 | 359 | 3.2 | 4.8 | 0.00 | 1.09 | 1.09 | 92 | 1048.2 |
| 20260509204916 | 12 | 310 | 3.2 | 4.8 | 0.00 | 1.09 | 1.09 | 92 | 1048.2 |
| 20260509204903 | 12 | 310 | 1.6 | 4.8 | 0.00 | 1.09 | 1.09 | 92 | 1048.2 |
| 20260509204853 | 12 | 310 | 1.6 | 4.8 | 0.00 | 1.09 | 1.09 | 92 | 1048.2 |
| 20260509204626 | 12 | 310 | 1.6 | 4.8 | 0.00 | 1.09 | 1.09 | 92 | 1048.2 |
| 20260509204303 | 12 | 310 | 1.6 | 3.2 | 0.00 | 1.09 | 1.09 | 92 | 1048.1 |
| 20260509204206 | 12 | 310 | 1.6 | 3.2 | 0.00 | 1.09 | 1.09 | 92 | 1048.1 |
| 20260509204104 | 12 | 310 | 1.6 | 3.2 | 0.00 | 1.09 | 1.09 | 92 | 1048.1 |
| 20260509204003 | 12 | 310 | 1.6 | 3.2 | 0.00 | 1.09 | 1.09 | 92 | 1048.1 |
| 20260509203905 | 12 | 310 | 1.6 | 3.2 | 0.00 | 1.09 | 1.09 | 92 | 1048.1 |
| 20260509203803 | 12 | 310 | 1.6 | 3.2 | 0.00 | 1.09 | 1.09 | 92 | 1048.1 |
| 20260509203704 | 12 | 310 | 1.6 | 3.2 | 0.00 | 1.09 | 1.09 | 92 | 1048.1 |
| 20260509203626 | 12 | 310 | 1.6 | 3.2 | 0.00 | 1.09 | 1.09 | 92 | 1048.1 |
| 20260509203614 | 12 | 310 | 1.6 | 3.2 | 0.00 | 1.09 | 1.09 | 92 | 1048.0 |
| 20260509203552 | 12 | 310 | 0.0 | 3.2 | 0.00 | 1.09 | 1.09 | 92 | 1048.1 |
| 20260509203328 | 12 | 310 | 0.0 | 3.2 | 0.00 | 1.09 | 1.09 | 92 | 1048.0 |
| 20260509203003 | 12 | 310 | 0.0 | 1.6 | 0.00 | 1.09 | 1.09 | 92 | 1048.0 |
| 20260509202905 | 12 | 310 | 0.0 | 1.6 | 0.00 | 1.09 | 1.09 | 92 | 1048.0 |
| 20260509202824 | 12 | 310 | 0.0 | 1.6 | 0.00 | 1.09 | 1.09 | 92 | 1047.9 |
| 20260509202816 | 12 | 310 | 0.0 | 3.2 | 0.00 | 1.09 | 1.09 | 92 | 1048.0 |
| 20260509202810 | 12 | 310 | 0.0 | 3.2 | 0.00 | 1.09 | 1.09 | 92 | 1048.0 |
| 20260509202539 | 12 | 311 | 1.6 | 3.2 | 0.00 | 1.09 | 1.09 | 92 | 1048.0 |
| 20260509202532 | 12 | 310 | 1.6 | 3.2 | 0.00 | 1.09 | 1.09 | 92 | 1048.0 |
| 20260509202523 | 12 | 310 | 1.6 | 3.2 | 0.00 | 1.09 | 1.09 | 92 | 1048.0 |
| 20260509202503 | 12 | 310 | 1.6 | 3.2 | 0.00 | 1.09 | 1.09 | 92 | 1048.0 |
| 20260509202452 | 12 | 310 | 1.6 | 3.2 | 0.00 | 1.09 | 1.09 | 92 | 1048.0 |
| 20260509202221 | 12 | 310 | 1.6 | 3.2 | 0.00 | 1.09 | 1.09 | 92 | 1048.0 |
| 20260509201952 | 12 | 310 | 1.6 | 3.2 | 0.00 | 1.09 | 1.09 | 92 | 1047.9 |
| 20260509201942 | 12 | 310 | 1.6 | 3.2 | 0.00 | 1.09 | 1.09 | 92 | 1047.9 |
| 20260509201422 | 12 | 310 | 1.6 | 4.8 | 0.00 | 1.09 | 1.09 | 92 | 1047.8 |
| 20260509201403 | 12 | 310 | 1.6 | 4.8 | 0.00 | 1.09 | 1.09 | 92 | 1047.8 |
| 20260509201301 | 12 | 310 | 1.6 | 4.8 | 0.00 | 1.09 | 1.09 | 92 | 1047.8 |
| 20260509201223 | 12 | 310 | 1.6 | 4.8 | 0.00 | 1.09 | 1.09 | 92 | 1047.8 |
| 20260509201217 | 12 | 310 | 1.6 | 4.8 | 0.00 | 1.09 | 1.09 | 92 | 1047.7 |
| 20260509200921 | 12 | 310 | 1.6 | 4.8 | 0.00 | 1.09 | 1.09 | 92 | 1047.7 |
| 20260509200856 | 12 | 310 | 1.6 | 4.8 | 0.00 | 1.09 | 1.09 | 92 | 1047.7 |
| 20260509200756 | 12 | 310 | 1.6 | 4.8 | 0.00 | 1.09 | 1.09 | 92 | 1047.7 |
| 20260509200728 | 12 | 310 | 1.6 | 4.8 | 0.00 | 1.09 | 1.09 | 92 | 1047.6 |
| 20260509200719 | 12 | 310 | 1.6 | 4.8 | 0.00 | 1.09 | 1.09 | 92 | 1047.7 |
| 20260509200421 | 12 | 310 | 1.6 | 4.8 | 0.00 | 1.09 | 1.09 | 92 | 1047.6 |
| 20260509200355 | 12 | 310 | 1.6 | 4.8 | 0.00 | 1.09 | 1.09 | 92 | 1047.6 |
| 20260509200256 | 12 | 310 | 1.6 | 3.2 | 0.00 | 1.09 | 1.09 | 92 | 1047.6 |
| 20260509200156 | 12 | 310 | 1.6 | 3.2 | 0.00 | 1.09 | 1.09 | 92 | 1047.6 |
| 20260509200056 | 12 | 310 | 1.6 | 3.2 | 0.00 | 1.09 | 1.09 | 92 | 1047.5 |
| 20260509195955 | 12 | 310 | 1.6 | 3.2 | 0.00 | 1.09 | 1.09 | 92 | 1047.5 |
| 20260509195921 | 12 | 310 | 1.6 | 3.2 | 0.00 | 1.09 | 1.09 | 92 | 1047.5 |
| 20260509195855 | 12 | 310 | 1.6 | 3.2 | 0.00 | 1.09 | 1.09 | 92 | 1047.5 |
| 20260509195755 | 12 | 310 | 1.6 | 3.2 | 0.00 | 1.09 | 1.09 | 92 | 1047.5 |
| 20260509195723 | 12 | 310 | 1.6 | 3.2 | 0.00 | 1.09 | 1.09 | 92 | 1047.5 |
| 20260509195715 | 12 | 310 | 1.6 | 3.2 | 0.00 | 1.09 | 1.09 | 92 | 1047.4 |
| 20260509195649 | 12 | 310 | 1.6 | 4.8 | 0.00 | 1.09 | 1.09 | 92 | 1047.4 |
| 20260509195427 | 12 | 310 | 1.6 | 4.8 | 0.00 | 1.09 | 1.09 | 92 | 1047.4 |
| 20260509195045 | 12 | 310 | 1.6 | 4.8 | 0.00 | 1.09 | 1.09 | 92 | 1047.3 |
| 20260509194921 | 12 | 310 | 1.6 | 4.8 | 0.00 | 1.09 | 1.09 | 92 | 1047.3 |
| 20260509194845 | 12 | 310 | 1.6 | 4.8 | 0.00 | 1.09 | 1.09 | 92 | 1047.3 |
| 20260509194745 | 12 | 310 | 1.6 | 4.8 | 0.00 | 1.09 | 1.09 | 92 | 1047.2 |
| 20260509194647 | 12 | 311 | 1.6 | 4.8 | 0.00 | 1.09 | 1.09 | 91 | 1047.2 |
| 20260509194546 | 12 | 310 | 1.6 | 4.8 | 0.00 | 1.09 | 1.09 | 91 | 1047.2 |
| 20260509194448 | 12 | 359 | 1.6 | 4.8 | 0.00 | 1.09 | 1.09 | 91 | 1047.1 |
| 20260509194436 | 12 | 310 | 1.6 | 4.8 | 0.00 | 1.09 | 1.09 | 91 | 1047.1 |
| 20260509194428 | 12 | 310 | 1.6 | 4.8 | 0.00 | 1.09 | 1.09 | 91 | 1047.1 |
| 20260509194416 | 12 | 310 | 1.6 | 4.8 | 0.00 | 1.09 | 1.09 | 91 | 1047.0 |
| 20260509194407 | 12 | 310 | 0.0 | 3.2 | 0.00 | 1.09 | 1.09 | 91 | 1047.0 |
| 20260509194138 | 12 | 310 | 0.0 | 1.6 | 0.00 | 1.09 | 1.09 | 91 | 1046.9 |
| 20260509194128 | 12 | 310 | 0.0 | 1.6 | 0.00 | 1.09 | 1.09 | 92 | 1046.9 |
| 20260509194119 | 12 | 310 | 0.0 | 0.0 | 0.00 | 1.09 | 1.09 | 92 | 1046.9 |
| 20260509193847 | 12 | 310 | 0.0 | 0.0 | 0.00 | 1.09 | 1.09 | 92 | 1046.8 |
| 20260509193838 | 12 | 310 | 0.0 | 1.6 | 0.00 | 1.09 | 1.09 | 92 | 1046.8 |
| 20260509193607 | 12 | 310 | 0.0 | 1.6 | 0.00 | 1.09 | 1.09 | 92 | 1046.8 |
| 20260509193559 | 12 | 310 | 0.0 | 1.6 | 0.00 | 1.09 | 1.09 | 92 | 1046.8 |
| 20260509193553 | 13 | 310 | 0.0 | 1.6 | 0.00 | 1.09 | 1.09 | 91 | 1046.8 |
| 20260509193541 | 13 | 310 | 0.0 | 1.6 | 0.00 | 1.09 | 1.09 | 92 | 1046.7 |
| 20260509193314 | 13 | 310 | 0.0 | 1.6 | 0.00 | 1.09 | 1.09 | 91 | 1046.8 |
| 20260509192802 | 13 | 310 | 0.0 | 1.6 | 0.00 | 1.09 | 1.09 | 91 | 1046.8 |
| 20260509192755 | 13 | 310 | 0.0 | 1.6 | 0.00 | 1.09 | 1.09 | 91 | 1046.8 |
| 20260509192426 | 13 | 310 | 0.0 | 1.6 | 0.00 | 1.09 | 1.09 | 91 | 1046.8 |
| 20260509192331 | 13 | 310 | 0.0 | 1.6 | 0.00 | 1.09 | 1.09 | 91 | 1046.7 |
| 20260509192232 | 13 | 310 | 0.0 | 1.6 | 0.00 | 1.09 | 1.09 | 91 | 1046.7 |
| 20260509192133 | 13 | 310 | 0.0 | 1.6 | 0.00 | 1.09 | 1.09 | 91 | 1046.6 |
| 20260509192031 | 13 | 310 | 0.0 | 1.6 | 0.00 | 1.09 | 1.09 | 91 | 1046.6 |
| 20260509191918 | 13 | 310 | 0.0 | 1.6 | 0.00 | 1.09 | 1.09 | 91 | 1046.6 |
| 20260509191832 | 13 | 310 | 0.0 | 1.6 | 0.00 | 1.09 | 1.09 | 91 | 1046.6 |
| 20260509191745 | 13 | 310 | 0.0 | 1.6 | 0.00 | 1.09 | 1.09 | 91 | 1046.6 |
| 20260509191738 | 13 | 310 | 0.0 | 1.6 | 0.00 | 1.09 | 1.09 | 91 | 1046.6 |
| 20260509191724 | 13 | 310 | 0.0 | 1.6 | 0.00 | 1.09 | 1.09 | 92 | 1046.6 |
| 20260509191455 | 13 | 310 | 0.0 | 1.6 | 0.00 | 1.09 | 1.09 | 92 | 1046.5 |
| 20260509191445 | 13 | 310 | 0.0 | 1.6 | 0.00 | 1.09 | 1.09 | 92 | 1046.5 |
| 20260509191123 | 13 | 310 | 0.0 | 3.2 | 0.00 | 1.09 | 1.09 | 92 | 1046.4 |
| 20260509191027 | 13 | 310 | 0.0 | 3.2 | 0.00 | 1.09 | 1.09 | 92 | 1046.4 |
| 20260509190952 | 13 | 310 | 0.0 | 3.2 | 0.00 | 1.09 | 1.09 | 92 | 1046.4 |
| 20260509190944 | 13 | 310 | 1.6 | 4.8 | 0.00 | 1.09 | 1.09 | 92 | 1046.5 |
| 20260509190615 | 13 | 312 | 1.6 | 4.8 | 0.00 | 1.09 | 1.09 | 92 | 1046.4 |
| 20260509190515 | 13 | 310 | 1.6 | 4.8 | 0.00 | 1.09 | 1.09 | 92 | 1046.4 |
| 20260509190453 | 13 | 310 | 1.6 | 4.8 | 0.00 | 1.09 | 1.09 | 92 | 1046.4 |
| 20260509190443 | 13 | 310 | 1.6 | 4.8 | 0.00 | 1.09 | 1.09 | 92 | 1046.3 |
| 20260509190155 | 13 | 359 | 1.6 | 4.8 | 0.00 | 1.09 | 1.09 | 92 | 1046.3 |
| 20260509190147 | 13 | 310 | 1.6 | 4.8 | 0.00 | 1.09 | 1.09 | 92 | 1046.3 |
| 20260509190129 | 13 | 310 | 1.6 | 4.8 | 0.00 | 1.09 | 1.09 | 92 | 1046.3 |
| 20260509185809 | 13 | 310 | 1.6 | 4.8 | 0.00 | 1.09 | 1.09 | 92 | 1046.4 |
| 20260509185724 | 13 | 310 | 1.6 | 4.8 | 0.00 | 1.09 | 1.09 | 92 | 1046.4 |
| 20260509185717 | 13 | 310 | 1.6 | 6.4 | 0.00 | 1.09 | 1.09 | 92 | 1046.4 |
| 20260509185710 | 13 | 310 | 1.6 | 6.4 | 0.00 | 1.09 | 1.09 | 92 | 1046.4 |
| 20260509185652 | 13 | 310 | 1.6 | 6.4 | 0.00 | 1.09 | 1.09 | 92 | 1046.4 |
| 20260509185643 | 13 | 310 | 1.6 | 6.4 | 0.00 | 1.09 | 1.09 | 92 | 1046.4 |
| 20260509185139 | 13 | 310 | 3.2 | 6.4 | 0.00 | 1.09 | 1.09 | 92 | 1046.3 |
| 20260509184903 | 13 | 310 | 3.2 | 6.4 | 0.00 | 1.09 | 1.09 | 92 | 1046.4 |
| 20260509184803 | 13 | 359 | 1.6 | 6.4 | 0.00 | 1.09 | 1.09 | 92 | 1046.3 |
| 20260509184703 | 13 | 310 | 1.6 | 9.7 | 0.00 | 1.09 | 1.09 | 92 | 1046.3 |
| 20260509184603 | 13 | 309 | 1.6 | 9.7 | 0.00 | 1.09 | 1.09 | 92 | 1046.2 |
| 20260509184504 | 13 | 309 | 1.6 | 9.7 | 0.00 | 1.09 | 1.09 | 92 | 1046.2 |
| 20260509184416 | 13 | 310 | 1.6 | 9.7 | 0.00 | 1.09 | 1.09 | 92 | 1046.3 |
| 20260509184403 | 13 | 309 | 1.6 | 9.7 | 0.00 | 1.09 | 1.09 | 92 | 1046.3 |
| 20260509184304 | 13 | 310 | 1.6 | 9.7 | 0.00 | 1.09 | 1.09 | 92 | 1046.2 |
| 20260509184203 | 13 | 310 | 1.6 | 9.7 | 0.00 | 1.09 | 1.09 | 92 | 1046.2 |
| 20260509184104 | 13 | 310 | 1.6 | 9.7 | 0.00 | 1.09 | 1.09 | 92 | 1046.2 |
| 20260509184003 | 13 | 310 | 1.6 | 9.7 | 0.00 | 1.09 | 1.09 | 92 | 1046.2 |
| 20260509183916 | 13 | 309 | 1.6 | 9.7 | 0.00 | 1.09 | 1.09 | 92 | 1046.2 |
| 20260509183903 | 13 | 310 | 1.6 | 9.7 | 0.00 | 1.09 | 1.09 | 92 | 1046.2 |
| 20260509183803 | 13 | 309 | 1.6 | 9.7 | 0.00 | 1.09 | 1.09 | 92 | 1046.1 |
| 20260509183703 | 13 | 308 | 1.6 | 4.8 | 0.00 | 1.09 | 1.09 | 92 | 1046.1 |
| 20260509183651 | 13 | 308 | 1.6 | 4.8 | 0.00 | 1.09 | 1.09 | 92 | 1046.1 |
| 20260509183638 | 13 | 308 | 3.2 | 8.0 | 0.00 | 1.09 | 1.09 | 92 | 1046.1 |
| 20260509183403 | 13 | 310 | 3.2 | 8.0 | 0.00 | 1.09 | 1.09 | 92 | 1046.1 |
| 20260509183303 | 13 | 310 | 3.2 | 8.0 | 0.00 | 1.09 | 1.09 | 92 | 1046.0 |
| 20260509183204 | 13 | 310 | 3.2 | 8.0 | 0.00 | 1.09 | 1.09 | 92 | 1046.0 |
| 20260509183103 | 13 | 309 | 3.2 | 8.0 | 0.00 | 1.09 | 1.09 | 92 | 1046.0 |
| 20260509182957 | 13 | 311 | 3.2 | 8.0 | 0.15 | 1.09 | 1.09 | 92 | 1046.0 |
| 20260509182910 | 13 | 310 | 3.2 | 8.0 | 0.15 | 1.09 | 1.09 | 92 | 1045.9 |
| 20260509182855 | 13 | 311 | 3.2 | 8.0 | 0.15 | 1.09 | 1.09 | 92 | 1045.9 |
| 20260509182755 | 13 | 311 | 3.2 | 8.0 | 0.15 | 1.09 | 1.09 | 92 | 1045.9 |
| 20260509182656 | 13 | 310 | 4.8 | 8.0 | 0.15 | 1.09 | 1.09 | 92 | 1045.9 |
| 20260509182639 | 13 | 310 | 4.8 | 8.0 | 0.15 | 1.09 | 1.09 | 92 | 1045.8 |
| 20260509182626 | 13 | 354 | 4.8 | 8.0 | 0.15 | 1.09 | 1.09 | 92 | 1045.9 |
| 20260509182355 | 13 | 354 | 4.8 | 8.0 | 0.15 | 1.09 | 1.09 | 92 | 1045.8 |
| 20260509182255 | 13 | 359 | 3.2 | 8.0 | 0.15 | 1.09 | 1.09 | 92 | 1045.8 |
| 20260509182155 | 13 | 359 | 3.2 | 8.0 | 0.15 | 1.09 | 1.09 | 92 | 1045.8 |
| 20260509182055 | 13 | 359 | 3.2 | 8.0 | 0.15 | 1.09 | 1.09 | 92 | 1045.8 |
| 20260509181955 | 13 | 359 | 3.2 | 8.0 | 0.15 | 1.09 | 1.09 | 92 | 1045.8 |
| 20260509181910 | 13 | 359 | 3.2 | 8.0 | 0.15 | 1.09 | 1.09 | 92 | 1045.8 |
| 20260509181858 | 13 | 359 | 3.2 | 8.0 | 0.15 | 1.09 | 1.09 | 92 | 1045.8 |
| 20260509181755 | 13 | 359 | 3.2 | 8.0 | 0.15 | 1.09 | 1.09 | 92 | 1045.8 |
| 20260509181742 | 13 | 359 | 3.2 | 8.0 | 0.15 | 1.09 | 1.09 | 92 | 1045.7 |
| 20260509181731 | 13 | 359 | 1.6 | 8.0 | 0.15 | 1.09 | 1.09 | 92 | 1045.7 |
| 20260509181456 | 13 | 4 | 1.6 | 6.4 | 0.15 | 1.09 | 1.09 | 92 | 1045.6 |
| 20260509181448 | 13 | 4 | 1.6 | 6.4 | 0.15 | 1.09 | 1.09 | 92 | 1045.6 |
| 20260509181438 | 13 | 4 | 1.6 | 6.4 | 0.15 | 1.09 | 1.09 | 92 | 1045.7 |
| 20260509181432 | 13 | 4 | 1.6 | 6.4 | 0.15 | 1.09 | 1.09 | 92 | 1045.6 |
| 20260509181423 | 13 | 4 | 1.6 | 6.4 | 0.15 | 1.09 | 1.09 | 92 | 1045.7 |
| 20260509181412 | 13 | 4 | 1.6 | 6.4 | 0.15 | 1.09 | 1.09 | 92 | 1045.6 |
| 20260509181359 | 13 | 4 | 0.0 | 6.4 | 0.15 | 1.09 | 1.09 | 92 | 1045.6 |
| 20260509180919 | 13 | 14 | 0.0 | 3.2 | 0.15 | 1.09 | 1.09 | 92 | 1045.6 |
| 20260509180909 | 13 | 14 | 0.0 | 3.2 | 0.15 | 1.09 | 1.09 | 92 | 1045.6 |
| 20260509180857 | 13 | 14 | 0.0 | 3.2 | 0.15 | 1.09 | 1.09 | 92 | 1045.6 |
| 20260509180631 | 13 | 14 | 0.0 | 3.2 | 0.15 | 1.09 | 1.09 | 92 | 1045.6 |
| 20260509180051 | 13 | 14 | 0.0 | 1.6 | 0.15 | 1.09 | 1.09 | 92 | 1045.6 |
| 20260509175949 | 13 | 14 | 0.0 | 3.2 | 0.15 | 1.09 | 1.09 | 92 | 1045.6 |
| 20260509175904 | 13 | 14 | 0.0 | 4.8 | 0.15 | 1.09 | 1.09 | 92 | 1045.6 |
| 20260509175850 | 13 | 14 | 0.0 | 4.8 | 0.15 | 1.09 | 1.09 | 92 | 1045.6 |
| 20260509175749 | 13 | 14 | 1.6 | 4.8 | 0.15 | 1.09 | 1.09 | 92 | 1045.6 |
| 20260509175649 | 13 | 14 | 1.6 | 4.8 | 0.15 | 1.09 | 1.09 | 92 | 1045.6 |
| 20260509175549 | 13 | 14 | 1.6 | 4.8 | 0.15 | 1.09 | 1.09 | 92 | 1045.6 |
| 20260509175515 | 13 | 14 | 1.6 | 6.4 | 0.15 | 1.09 | 1.09 | 92 | 1045.6 |
| 20260509175503 | 13 | 14 | 1.6 | 6.4 | 0.15 | 1.09 | 1.09 | 92 | 1045.5 |
| 20260509175456 | 13 | 14 | 1.6 | 6.4 | 0.15 | 1.09 | 1.09 | 92 | 1045.5 |
| 20260509175443 | 13 | 14 | 3.2 | 6.4 | 0.15 | 1.09 | 1.09 | 92 | 1045.6 |
| 20260509175217 | 13 | 14 | 3.2 | 6.4 | 0.15 | 1.09 | 1.09 | 92 | 1045.5 |
| 20260509175139 | 13 | 14 | 3.2 | 6.4 | 0.15 | 1.09 | 1.09 | 92 | 1045.5 |
| 20260509174912 | 13 | 14 | 1.6 | 6.4 | 0.15 | 1.09 | 1.09 | 92 | 1045.4 |
| 20260509174639 | 13 | 14 | 1.6 | 6.4 | 0.15 | 1.09 | 1.09 | 92 | 1045.4 |
| 20260509174609 | 13 | 14 | 1.6 | 4.8 | 0.15 | 1.09 | 1.09 | 92 | 1045.4 |
| 20260509174309 | 13 | 14 | 1.6 | 4.8 | 0.15 | 1.09 | 1.09 | 92 | 1045.2 |
| 20260509174301 | 13 | 14 | 1.6 | 4.8 | 0.15 | 1.09 | 1.09 | 92 | 1045.4 |
| 20260509174250 | 13 | 14 | 1.6 | 6.4 | 0.18 | 1.09 | 1.09 | 92 | 1045.2 |
| 20260509174230 | 13 | 14 | 1.6 | 6.4 | 0.18 | 1.09 | 1.09 | 92 | 1045.2 |
| 20260509173646 | 13 | 14 | 1.6 | 6.4 | 0.18 | 1.09 | 1.09 | 92 | 1045.2 |
| 20260509173545 | 13 | 14 | 3.2 | 6.4 | 0.18 | 1.09 | 1.09 | 92 | 1045.2 |
| 20260509173446 | 13 | 14 | 3.2 | 6.4 | 0.18 | 1.09 | 1.09 | 92 | 1045.4 |
| 20260509173404 | 13 | 14 | 3.2 | 6.4 | 0.20 | 1.09 | 1.09 | 92 | 1045.4 |
| 20260509173345 | 13 | 14 | 3.2 | 6.4 | 0.20 | 1.09 | 1.09 | 92 | 1045.4 |
| 20260509173245 | 13 | 14 | 3.2 | 6.4 | 0.20 | 1.09 | 1.09 | 92 | 1045.4 |
| 20260509173214 | 13 | 14 | 3.2 | 6.4 | 0.20 | 1.09 | 1.09 | 92 | 1045.4 |
| 20260509173207 | 13 | 14 | 3.2 | 6.4 | 0.20 | 1.09 | 0.97 | 92 | 1045.4 |
| 20260509172906 | 13 | 14 | 3.2 | 6.4 | 0.08 | 0.97 | 0.97 | 92 | 1045.4 |
| 20260509172845 | 13 | 14 | 3.2 | 6.4 | 0.08 | 0.97 | 0.97 | 92 | 1045.4 |
| 20260509172745 | 13 | 14 | 3.2 | 6.4 | 0.08 | 0.97 | 0.97 | 92 | 1045.4 |
| 20260509172645 | 13 | 14 | 3.2 | 6.4 | 0.08 | 0.97 | 0.97 | 92 | 1045.4 |
| 20260509172545 | 13 | 14 | 3.2 | 6.4 | 0.10 | 0.97 | 0.97 | 92 | 1045.4 |
| 20260509172530 | 13 | 15 | 3.2 | 6.4 | 0.10 | 0.97 | 0.97 | 92 | 1045.4 |
| 20260509172514 | 13 | 14 | 3.2 | 6.4 | 0.10 | 0.97 | 0.97 | 92 | 1045.4 |
| 20260509172507 | 13 | 14 | 3.2 | 6.4 | 0.10 | 0.97 | 0.97 | 92 | 1045.5 |
| 20260509172145 | 13 | 14 | 3.2 | 8.0 | 0.13 | 0.97 | 0.97 | 92 | 1045.4 |
| 20260509172047 | 13 | 14 | 3.2 | 8.0 | 0.13 | 0.97 | 0.97 | 92 | 1045.2 |
| 20260509171947 | 13 | 14 | 3.2 | 8.0 | 0.13 | 0.97 | 0.97 | 92 | 1045.2 |
| 20260509171904 | 13 | 14 | 3.2 | 8.0 | 0.15 | 0.97 | 0.97 | 92 | 1045.2 |
| 20260509171845 | 13 | 14 | 3.2 | 8.0 | 0.15 | 0.97 | 0.97 | 92 | 1045.2 |
| 20260509171745 | 13 | 15 | 3.2 | 8.0 | 0.15 | 0.97 | 0.97 | 92 | 1045.2 |
| 20260509171645 | 13 | 16 | 3.2 | 8.0 | 0.15 | 0.97 | 0.97 | 92 | 1045.2 |
| 20260509171545 | 13 | 15 | 3.2 | 8.0 | 0.15 | 0.97 | 0.97 | 92 | 1045.2 |
| 20260509171445 | 13 | 15 | 3.2 | 8.0 | 0.15 | 0.97 | 0.97 | 92 | 1045.2 |
| 20260509171404 | 13 | 15 | 3.2 | 8.0 | 0.15 | 0.97 | 0.97 | 92 | 1045.2 |
| 20260509171344 | 13 | 15 | 3.2 | 8.0 | 0.15 | 0.97 | 0.97 | 92 | 1045.2 |
| 20260509171321 | 13 | 16 | 3.2 | 8.0 | 0.18 | 0.97 | 0.97 | 92 | 1045.2 |
| 20260509171311 | 13 | 16 | 3.2 | 8.0 | 0.18 | 0.97 | 0.97 | 92 | 1045.4 |
| 20260509170951 | 13 | 16 | 3.2 | 8.0 | 0.20 | 0.97 | 0.97 | 92 | 1045.4 |
| 20260509170940 | 13 | 16 | 3.2 | 8.0 | 0.23 | 0.97 | 0.97 | 92 | 1045.4 |
| 20260509170931 | 13 | 16 | 3.2 | 8.0 | 0.23 | 0.97 | 0.97 | 92 | 1045.4 |
| 20260509170921 | 13 | 14 | 3.2 | 8.0 | 0.23 | 0.97 | 0.97 | 92 | 1045.4 |
| 20260509170915 | 13 | 14 | 3.2 | 8.0 | 0.23 | 0.97 | 0.97 | 92 | 1045.5 |
| 20260509170900 | 13 | 14 | 3.2 | 8.0 | 0.23 | 0.97 | 0.97 | 92 | 1045.5 |
| 20260509170849 | 13 | 14 | 3.2 | 8.0 | 0.23 | 0.97 | 0.97 | 92 | 1045.5 |
| 20260509170404 | 13 | 14 | 3.2 | 8.0 | 0.25 | 0.97 | 0.97 | 92 | 1045.6 |
| 20260509170354 | 13 | 14 | 3.2 | 11.3 | 0.25 | 0.97 | 0.97 | 91 | 1045.6 |
| 20260509170348 | 13 | 14 | 3.2 | 11.3 | 0.28 | 0.97 | 0.94 | 91 | 1045.7 |
| 20260509165841 | 13 | 16 | 3.2 | 11.3 | 0.28 | 0.94 | 0.94 | 91 | 1045.8 |
| 20260509165741 | 13 | 16 | 3.2 | 11.3 | 0.30 | 0.94 | 0.94 | 91 | 1045.9 |
| 20260509165640 | 13 | 16 | 3.2 | 11.3 | 0.30 | 0.94 | 0.94 | 91 | 1045.9 |
| 20260509165541 | 13 | 16 | 3.2 | 11.3 | 0.33 | 0.94 | 0.94 | 91 | 1045.9 |
| 20260509165441 | 13 | 16 | 3.2 | 11.3 | 0.33 | 0.94 | 0.94 | 91 | 1045.9 |
| 20260509165404 | 13 | 16 | 3.2 | 11.3 | 0.33 | 0.94 | 0.94 | 91 | 1045.9 |
| 20260509165341 | 13 | 16 | 3.2 | 11.3 | 0.33 | 0.94 | 0.94 | 91 | 1046.0 |
| 20260509165241 | 13 | 16 | 3.2 | 11.3 | 0.36 | 0.94 | 0.94 | 91 | 1046.1 |
| 20260509165212 | 13 | 16 | 3.2 | 11.3 | 0.36 | 0.94 | 0.94 | 91 | 1046.0 |
| 20260509165206 | 13 | 16 | 4.8 | 11.3 | 0.38 | 0.94 | 0.94 | 91 | 1046.1 |
| 20260509164903 | 13 | 17 | 4.8 | 11.3 | 0.41 | 0.94 | 0.94 | 91 | 1046.1 |
| 20260509164841 | 13 | 17 | 4.8 | 11.3 | 0.41 | 0.94 | 0.94 | 91 | 1046.1 |
| 20260509164741 | 13 | 17 | 4.8 | 11.3 | 0.41 | 0.94 | 0.94 | 91 | 1046.1 |
| 20260509164646 | 13 | 16 | 4.8 | 12.9 | 0.43 | 0.94 | 0.94 | 91 | 1046.1 |
| 20260509164636 | 13 | 17 | 4.8 | 12.9 | 0.43 | 0.94 | 0.94 | 91 | 1046.1 |
| 20260509164626 | 13 | 18 | 4.8 | 12.9 | 0.43 | 0.94 | 0.94 | 91 | 1046.1 |
| 20260509164337 | 13 | 18 | 4.8 | 12.9 | 0.43 | 0.94 | 0.94 | 91 | 1046.2 |
| 20260509164237 | 13 | 19 | 4.8 | 12.9 | 0.46 | 0.94 | 0.94 | 91 | 1046.2 |
| 20260509164151 | 13 | 16 | 4.8 | 12.9 | 0.46 | 0.94 | 0.91 | 91 | 1046.2 |
| 20260509164143 | 13 | 18 | 4.8 | 12.9 | 0.46 | 0.91 | 0.91 | 91 | 1046.2 |
| 20260509164125 | 13 | 16 | 4.8 | 12.9 | 0.46 | 0.91 | 0.91 | 91 | 1046.3 |
| 20260509164115 | 13 | 16 | 4.8 | 12.9 | 0.48 | 0.91 | 0.91 | 91 | 1046.3 |
| 20260509163850 | 13 | 9 | 4.8 | 12.9 | 0.51 | 0.91 | 0.91 | 91 | 1046.4 |
| 20260509163531 | 13 | 29 | 4.8 | 9.7 | 0.51 | 0.91 | 0.91 | 91 | 1046.5 |
| 20260509163431 | 13 | 31 | 4.8 | 9.7 | 0.53 | 0.91 | 0.89 | 91 | 1046.6 |
| 20260509163404 | 13 | 29 | 4.8 | 9.7 | 0.51 | 0.89 | 0.89 | 91 | 1046.6 |
| 20260509163329 | 13 | 31 | 4.8 | 9.7 | 0.53 | 0.89 | 0.89 | 91 | 1046.6 |
| 20260509163232 | 13 | 23 | 3.2 | 8.0 | 0.53 | 0.89 | 0.89 | 91 | 1046.7 |
| 20260509163132 | 13 | 23 | 3.2 | 8.0 | 0.56 | 0.89 | 0.89 | 91 | 1046.6 |
| 20260509163032 | 13 | 25 | 3.2 | 8.0 | 0.58 | 0.89 | 0.89 | 91 | 1046.7 |
| 20260509162932 | 13 | 228 | 3.2 | 8.0 | 0.61 | 0.89 | 0.89 | 91 | 1046.8 |
| 20260509162906 | 13 | 228 | 3.2 | 8.0 | 0.58 | 0.89 | 0.89 | 91 | 1046.8 |
| 20260509162833 | 13 | 226 | 3.2 | 8.0 | 0.61 | 0.89 | 0.89 | 91 | 1046.8 |
| 20260509162731 | 13 | 223 | 3.2 | 6.4 | 0.61 | 0.89 | 0.89 | 91 | 1046.8 |
| 20260509162628 | 13 | 220 | 1.6 | 6.4 | 0.61 | 0.89 | 0.86 | 91 | 1046.8 |
| 20260509162526 | 13 | 220 | 1.6 | 6.4 | 0.61 | 0.86 | 0.86 | 91 | 1046.9 |
| 20260509162407 | 13 | 220 | 1.6 | 6.4 | 0.61 | 0.86 | 0.86 | 91 | 1046.9 |
| 20260509162326 | 13 | 220 | 1.6 | 6.4 | 0.61 | 0.86 | 0.84 | 91 | 1047.0 |
| 20260509162224 | 13 | 217 | 1.6 | 6.4 | 0.61 | 0.84 | 0.84 | 91 | 1047.0 |
| 20260509162210 | 13 | 217 | 1.6 | 6.4 | 0.61 | 0.84 | 0.84 | 91 | 1047.0 |
| 20260509162202 | 13 | 217 | 1.6 | 6.4 | 0.64 | 0.84 | 0.81 | 91 | 1047.0 |
| 20260509162150 | 13 | 216 | 1.6 | 6.4 | 0.64 | 0.81 | 0.81 | 91 | 1047.1 |
| 20260509161922 | 13 | 216 | 1.6 | 6.4 | 0.64 | 0.81 | 0.81 | 91 | 1047.1 |
| 20260509161910 | 13 | 217 | 1.6 | 6.4 | 0.66 | 0.81 | 0.81 | 91 | 1047.1 |
| 20260509161849 | 13 | 217 | 1.6 | 6.4 | 0.66 | 0.81 | 0.79 | 91 | 1047.2 |
| 20260509161617 | 13 | 217 | 1.6 | 6.4 | 0.66 | 0.79 | 0.79 | 91 | 1047.2 |
| 20260509161601 | 13 | 216 | 1.6 | 6.4 | 0.66 | 0.79 | 0.79 | 91 | 1047.2 |
| 20260509161550 | 13 | 216 | 1.6 | 6.4 | 0.64 | 0.79 | 0.79 | 91 | 1047.2 |
| 20260509161051 | 13 | 214 | 1.6 | 6.4 | 0.61 | 0.76 | 0.74 | 91 | 1047.4 |
| 20260509161040 | 13 | 213 | 1.6 | 6.4 | 0.61 | 0.74 | 0.74 | 91 | 1047.3 |
| 20260509161029 | 13 | 213 | 1.6 | 6.4 | 0.61 | 0.74 | 0.74 | 91 | 1047.4 |
| 20260509160705 | 13 | 212 | 1.6 | 3.2 | 0.61 | 0.74 | 0.71 | 91 | 1047.4 |
| 20260509160618 | 13 | 212 | 1.6 | 3.2 | 0.61 | 0.71 | 0.71 | 91 | 1047.4 |
| 20260509160610 | 13 | 212 | 1.6 | 3.2 | 0.61 | 0.71 | 0.71 | 91 | 1047.5 |
| 20260509160557 | 13 | 212 | 1.6 | 3.2 | 0.58 | 0.71 | 0.71 | 91 | 1047.5 |
| 20260509160305 | 13 | 212 | 1.6 | 3.2 | 0.58 | 0.71 | 0.71 | 91 | 1047.6 |
| 20260509160205 | 13 | 212 | 1.6 | 3.2 | 0.58 | 0.71 | 0.69 | 91 | 1047.6 |
| 20260509160104 | 13 | 212 | 1.6 | 3.2 | 0.56 | 0.69 | 0.69 | 91 | 1047.6 |
| 20260509160049 | 13 | 212 | 1.6 | 3.2 | 0.56 | 0.69 | 0.66 | 91 | 1047.7 |
| 20260509160039 | 13 | 212 | 1.6 | 3.2 | 0.53 | 0.66 | 0.66 | 91 | 1047.7 |
| 20260509160030 | 13 | 212 | 1.6 | 4.8 | 0.53 | 0.66 | 0.64 | 91 | 1047.7 |
| 20260509155704 | 13 | 212 | 1.6 | 4.8 | 0.51 | 0.64 | 0.61 | 91 | 1047.7 |
| 20260509155604 | 13 | 212 | 1.6 | 4.8 | 0.51 | 0.61 | 0.61 | 91 | 1047.7 |
| 20260509155504 | 13 | 212 | 3.2 | 4.8 | 0.51 | 0.61 | 0.61 | 90 | 1047.8 |
| 20260509155356 | 13 | 213 | 3.2 | 4.8 | 0.48 | 0.61 | 0.58 | 91 | 1047.8 |
| 20260509155337 | 13 | 212 | 3.2 | 4.8 | 0.48 | 0.61 | 0.58 | 91 | 1047.8 |
| 20260509155257 | 13 | 212 | 3.2 | 4.8 | 0.46 | 0.58 | 0.58 | 91 | 1047.8 |
| 20260509155157 | 13 | 213 | 1.6 | 4.8 | 0.48 | 0.58 | 0.56 | 91 | 1047.8 |
| 20260509155057 | 13 | 212 | 1.6 | 4.8 | 0.46 | 0.56 | 0.56 | 91 | 1047.8 |
| 20260509154957 | 13 | 212 | 1.6 | 4.8 | 0.46 | 0.56 | 0.53 | 90 | 1047.9 |
| 20260509154856 | 13 | 212 | 1.6 | 4.8 | 0.43 | 0.53 | 0.53 | 90 | 1047.9 |
| 20260509154836 | 13 | 212 | 3.2 | 4.8 | 0.43 | 0.53 | 0.53 | 90 | 1047.9 |
| 20260509154755 | 13 | 213 | 3.2 | 6.4 | 0.43 | 0.53 | 0.53 | 90 | 1047.9 |
| 20260509154734 | 13 | 212 | 3.2 | 6.4 | 0.43 | 0.53 | 0.51 | 90 | 1047.9 |
| 20260509154727 | 13 | 212 | 3.2 | 6.4 | 0.43 | 0.51 | 0.51 | 90 | 1047.9 |
| 20260509154421 | 13 | 212 | 1.6 | 6.4 | 0.41 | 0.51 | 0.48 | 90 | 1048.0 |
| 20260509154408 | 13 | 212 | 1.6 | 6.4 | 0.38 | 0.48 | 0.48 | 90 | 1048.0 |
| 20260509154043 | 13 | 212 | 1.6 | 6.4 | 0.36 | 0.46 | 0.46 | 90 | 1048.1 |
| 20260509153941 | 13 | 212 | 1.6 | 6.4 | 0.36 | 0.46 | 0.43 | 90 | 1048.1 |
| 20260509153838 | 13 | 212 | 1.6 | 6.4 | 0.33 | 0.43 | 0.43 | 90 | 1048.1 |
| 20260509153741 | 13 | 210 | 1.6 | 4.8 | 0.33 | 0.43 | 0.43 | 90 | 1048.1 |
| 20260509153640 | 13 | 210 | 1.6 | 8.0 | 0.33 | 0.43 | 0.41 | 90 | 1048.2 |
| 20260509153539 | 13 | 210 | 1.6 | 8.0 | 0.30 | 0.41 | 0.38 | 90 | 1048.2 |
| 20260509153439 | 13 | 210 | 1.6 | 8.0 | 0.28 | 0.38 | 0.36 | 90 | 1048.2 |
| 20260509153359 | 13 | 210 | 3.2 | 8.0 | 0.25 | 0.36 | 0.36 | 90 | 1048.3 |
| 20260509153347 | 13 | 210 | 3.2 | 8.0 | 0.25 | 0.36 | 0.33 | 89 | 1048.3 |
| 20260509153336 | 13 | 209 | 3.2 | 8.0 | 0.23 | 0.33 | 0.33 | 89 | 1048.3 |
| 20260509153327 | 14 | 209 | 3.2 | 8.0 | 0.23 | 0.33 | 0.30 | 89 | 1048.3 |
| 20260509153320 | 14 | 210 | 4.8 | 8.0 | 0.20 | 0.30 | 0.30 | 90 | 1048.3 |
| 20260509152731 | 14 | 209 | 3.2 | 8.0 | 0.18 | 0.28 | 0.25 | 89 | 1048.4 |
| 20260509152649 | 14 | 210 | 3.2 | 8.0 | 0.15 | 0.25 | 0.25 | 89 | 1048.4 |
| 20260509152641 | 14 | 210 | 3.2 | 8.0 | 0.15 | 0.25 | 0.23 | 89 | 1048.4 |
| 20260509152628 | 14 | 210 | 4.8 | 9.7 | 0.15 | 0.23 | 0.23 | 89 | 1048.4 |
| 20260509152400 | 14 | 206 | 4.8 | 11.3 | 0.15 | 0.23 | 0.23 | 89 | 1048.4 |
| 20260509152350 | 14 | 205 | 4.8 | 11.3 | 0.13 | 0.23 | 0.23 | 89 | 1048.4 |
| 20260509152119 | 14 | 206 | 4.8 | 11.3 | 0.10 | 0.20 | 0.20 | 89 | 1048.4 |
| 20260509152108 | 14 | 206 | 6.4 | 14.5 | 0.10 | 0.20 | 0.18 | 89 | 1048.3 |
| 20260509151831 | 14 | 206 | 6.4 | 14.5 | 0.08 | 0.18 | 0.18 | 89 | 1048.3 |
| 20260509151729 | 14 | 206 | 6.4 | 14.5 | 0.05 | 0.15 | 0.15 | 89 | 1048.3 |
| 20260509151706 | 14 | 205 | 8.0 | 14.5 | 0.05 | 0.15 | 0.15 | 89 | 1048.2 |
| 20260509151700 | 14 | 206 | 6.4 | 14.5 | 0.05 | 0.15 | 0.15 | 89 | 1048.2 |
| 20260509151325 | 14 | 214 | 8.0 | 14.5 | 0.05 | 0.15 | 0.15 | 89 | 1048.2 |
| 20260509151223 | 14 | 214 | 8.0 | 14.5 | 0.05 | 0.15 | 0.15 | 89 | 1048.1 |
| 20260509151131 | 14 | 214 | 8.0 | 14.5 | 0.05 | 0.15 | 0.15 | 89 | 1048.1 |
| 20260509151120 | 14 | 211 | 6.4 | 14.5 | 0.05 | 0.15 | 0.15 | 89 | 1048.1 |
| 20260509151112 | 14 | 214 | 6.4 | 12.9 | 0.05 | 0.15 | 0.15 | 89 | 1048.0 |
| 20260509151100 | 14 | 220 | 6.4 | 11.3 | 0.05 | 0.15 | 0.13 | 89 | 1047.9 |
| 20260509151053 | 14 | 222 | 6.4 | 11.3 | 0.05 | 0.15 | 0.13 | 89 | 1047.9 |
| 20260509151045 | 14 | 220 | 4.8 | 11.3 | 0.05 | 0.13 | 0.13 | 89 | 1047.9 |
| 20260509151032 | 14 | 230 | 4.8 | 8.0 | 0.05 | 0.13 | 0.13 | 89 | 1047.7 |
| 20260509150539 | 14 | 68 | 3.2 | 8.0 | 0.05 | 0.13 | 0.13 | 89 | 1047.4 |
| 20260509150219 | 14 | 68 | 3.2 | 8.0 | 0.05 | 0.13 | 0.13 | 89 | 1047.2 |
| 20260509150118 | 14 | 67 | 3.2 | 8.0 | 0.05 | 0.13 | 0.13 | 88 | 1047.1 |
| 20260509150019 | 14 | 66 | 3.2 | 6.4 | 0.05 | 0.13 | 0.13 | 88 | 1047.0 |
| 20260509145915 | 14 | 66 | 3.2 | 9.7 | 0.05 | 0.13 | 0.13 | 88 | 1046.8 |
| 20260509145816 | 14 | 66 | 3.2 | 9.7 | 0.05 | 0.13 | 0.13 | 88 | 1046.7 |
| 20260509145715 | 14 | 66 | 4.8 | 9.7 | 0.05 | 0.13 | 0.13 | 88 | 1046.6 |
| 20260509145615 | 14 | 66 | 4.8 | 11.3 | 0.05 | 0.13 | 0.13 | 87 | 1046.5 |
| 20260509145554 | 14 | 66 | 4.8 | 12.9 | 0.05 | 0.13 | 0.13 | 87 | 1046.4 |
| 20260509145546 | 14 | 66 | 6.4 | 12.9 | 0.05 | 0.13 | 0.13 | 87 | 1046.4 |
| 20260509145537 | 14 | 65 | 6.4 | 12.9 | 0.05 | 0.13 | 0.13 | 87 | 1046.3 |
| 20260509145530 | 14 | 66 | 6.4 | 12.9 | 0.05 | 0.13 | 0.13 | 87 | 1046.3 |
| 20260509145517 | 14 | 66 | 6.4 | 12.9 | 0.05 | 0.13 | 0.10 | 87 | 1046.2 |
| 20260509145510 | 14 | 65 | 6.4 | 12.9 | 0.05 | 0.10 | 0.10 | 87 | 1046.2 |
| 20260509145501 | 14 | 65 | 6.4 | 12.9 | 0.05 | 0.10 | 0.10 | 87 | 1046.1 |
| 20260509145455 | 14 | 65 | 6.4 | 12.9 | 0.05 | 0.10 | 0.10 | 87 | 1046.0 |
| 20260509145444 | 15 | 60 | 8.0 | 12.9 | 0.05 | 0.10 | 0.10 | 87 | 1046.0 |
| 20260509144734 | 15 | 77 | 8.0 | 14.5 | 0.08 | 0.10 | 0.10 | 87 | 1045.9 |
| 20260509144724 | 15 | 68 | 8.0 | 14.5 | 0.08 | 0.10 | 0.10 | 87 | 1045.9 |
| 20260509144713 | 15 | 156 | 8.0 | 14.5 | 0.08 | 0.10 | 0.10 | 87 | 1046.0 |
| 20260509144113 | 15 | 68 | 8.0 | 14.5 | 0.08 | 0.10 | 0.10 | 87 | 1046.1 |
| 20260509144024 | 15 | 72 | 6.4 | 14.5 | 0.08 | 0.10 | 0.10 | 87 | 1046.1 |
| 20260509143913 | 15 | 77 | 6.4 | 14.5 | 0.08 | 0.10 | 0.10 | 88 | 1046.0 |
| 20260509143832 | 15 | 75 | 6.4 | 14.5 | 0.08 | 0.10 | 0.10 | 88 | 1046.1 |
| 20260509143813 | 15 | 83 | 6.4 | 14.5 | 0.08 | 0.10 | 0.10 | 88 | 1046.1 |
| 20260509143709 | 15 | 74 | 6.4 | 12.9 | 0.08 | 0.10 | 0.10 | 88 | 1046.0 |
| 20260509143608 | 15 | 91 | 6.4 | 14.5 | 0.08 | 0.10 | 0.10 | 88 | 1045.9 |
| 20260509143511 | 15 | 81 | 6.4 | 14.5 | 0.08 | 0.10 | 0.10 | 88 | 1045.9 |
| 20260509143406 | 15 | 79 | 6.4 | 14.5 | 0.10 | 0.10 | 0.10 | 88 | 1045.9 |
| 20260509143333 | 15 | 78 | 6.4 | 14.5 | 0.10 | 0.10 | 0.10 | 87 | 1045.9 |
| 20260509143306 | 15 | 73 | 6.4 | 14.5 | 0.10 | 0.10 | 0.10 | 87 | 1045.9 |
| 20260509143207 | 15 | 83 | 6.4 | 14.5 | 0.10 | 0.10 | 0.10 | 87 | 1045.9 |
| 20260509143107 | 15 | 84 | 8.0 | 14.5 | 0.10 | 0.10 | 0.10 | 87 | 1045.9 |
| 20260509143004 | 15 | 85 | 8.0 | 14.5 | 0.10 | 0.10 | 0.10 | 87 | 1046.0 |
| 20260509142904 | 15 | 85 | 8.0 | 14.5 | 0.10 | 0.10 | 0.10 | 87 | 1046.0 |
| 20260509142832 | 15 | 82 | 8.0 | 14.5 | 0.10 | 0.10 | 0.10 | 87 | 1045.9 |
| 20260509142805 | 15 | 67 | 8.0 | 14.5 | 0.10 | 0.10 | 0.10 | 87 | 1045.9 |
| 20260509142704 | 15 | 64 | 6.4 | 14.5 | 0.10 | 0.10 | 0.10 | 87 | 1046.0 |
| 20260509142603 | 15 | 63 | 6.4 | 14.5 | 0.10 | 0.10 | 0.10 | 87 | 1045.9 |
| 20260509142503 | 15 | 64 | 6.4 | 14.5 | 0.10 | 0.10 | 0.10 | 87 | 1045.9 |
| 20260509142404 | 15 | 62 | 6.4 | 14.5 | 0.10 | 0.10 | 0.10 | 87 | 1045.9 |
| 20260509142333 | 15 | 64 | 6.4 | 14.5 | 0.10 | 0.10 | 0.10 | 87 | 1045.9 |
| 20260509142320 | 15 | 58 | 6.4 | 14.5 | 0.10 | 0.10 | 0.10 | 87 | 1045.9 |
| 20260509142313 | 15 | 59 | 6.4 | 14.5 | 0.10 | 0.10 | 0.10 | 87 | 1045.8 |
| 20260509142300 | 15 | 45 | 4.8 | 9.7 | 0.10 | 0.10 | 0.10 | 87 | 1045.8 |
| 20260509142036 | 15 | 41 | 4.8 | 9.7 | 0.10 | 0.10 | 0.10 | 87 | 1045.8 |
| 20260509142027 | 15 | 34 | 4.8 | 9.7 | 0.10 | 0.10 | 0.10 | 87 | 1045.8 |
| 20260509141703 | 15 | 35 | 4.8 | 9.7 | 0.10 | 0.10 | 0.10 | 87 | 1045.8 |
| 20260509141600 | 15 | 25 | 4.8 | 11.3 | 0.10 | 0.10 | 0.10 | 87 | 1045.8 |
| 20260509141454 | 15 | 24 | 4.8 | 11.3 | 0.10 | 0.10 | 0.10 | 87 | 1045.8 |
| 20260509141354 | 15 | 52 | 4.8 | 11.3 | 0.10 | 0.10 | 0.10 | 87 | 1045.8 |
| 20260509141333 | 15 | 52 | 6.4 | 11.3 | 0.10 | 0.10 | 0.10 | 87 | 1045.9 |
| 20260509141255 | 15 | 52 | 6.4 | 11.3 | 0.10 | 0.10 | 0.08 | 87 | 1045.9 |
| 20260509141219 | 15 | 54 | 4.8 | 11.3 | 0.08 | 0.08 | 0.08 | 87 | 1045.9 |
| 20260509141211 | 15 | 54 | 4.8 | 11.3 | 0.08 | 0.08 | 0.08 | 86 | 1045.9 |
| 20260509140833 | 15 | 68 | 4.8 | 11.3 | 0.08 | 0.08 | 0.08 | 86 | 1045.9 |
| 20260509140745 | 15 | 71 | 4.8 | 11.3 | 0.08 | 0.08 | 0.08 | 86 | 1046.0 |
| 20260509140647 | 15 | 71 | 4.8 | 11.3 | 0.08 | 0.08 | 0.08 | 86 | 1046.0 |
| 20260509140544 | 15 | 83 | 4.8 | 9.7 | 0.08 | 0.08 | 0.08 | 86 | 1046.1 |
| 20260509140442 | 15 | 84 | 4.8 | 9.7 | 0.08 | 0.08 | 0.08 | 86 | 1046.1 |
| 20260509140343 | 15 | 84 | 4.8 | 9.7 | 0.08 | 0.08 | 0.08 | 86 | 1046.1 |
| 20260509140331 | 15 | 84 | 3.2 | 9.7 | 0.08 | 0.08 | 0.08 | 86 | 1046.1 |
| 20260509140245 | 15 | 85 | 3.2 | 9.7 | 0.08 | 0.08 | 0.08 | 85 | 1046.1 |
| 20260509140141 | 15 | 85 | 3.2 | 9.7 | 0.08 | 0.08 | 0.08 | 85 | 1046.2 |
| 20260509140040 | 15 | 85 | 3.2 | 9.7 | 0.08 | 0.08 | 0.08 | 85 | 1046.2 |
| 20260509135941 | 15 | 85 | 3.2 | 9.7 | 0.08 | 0.08 | 0.08 | 85 | 1046.3 |
| 20260509135829 | 15 | 85 | 3.2 | 9.7 | 0.08 | 0.08 | 0.08 | 85 | 1046.3 |
| 20260509135741 | 15 | 87 | 3.2 | 8.0 | 0.08 | 0.08 | 0.08 | 84 | 1046.3 |
| 20260509135641 | 15 | 87 | 3.2 | 6.4 | 0.08 | 0.08 | 0.08 | 84 | 1046.4 |
| 20260509135538 | 15 | 87 | 3.2 | 6.4 | 0.08 | 0.08 | 0.05 | 84 | 1046.5 |
| 20260509135436 | 15 | 87 | 3.2 | 6.4 | 0.05 | 0.05 | 0.05 | 84 | 1046.5 |
| 20260509135331 | 15 | 87 | 3.2 | 6.4 | 0.05 | 0.05 | 0.05 | 84 | 1046.5 |
| 20260509135233 | 15 | 87 | 3.2 | 6.4 | 0.05 | 0.05 | 0.05 | 83 | 1046.5 |
| 20260509135204 | 16 | 87 | 3.2 | 6.4 | 0.05 | 0.05 | 0.05 | 83 | 1046.6 |
| 20260509135156 | 16 | 87 | 3.2 | 6.4 | 0.05 | 0.05 | 0.05 | 83 | 1046.6 |
| 20260509134850 | 16 | 87 | 3.2 | 6.4 | 0.05 | 0.05 | 0.05 | 83 | 1046.7 |
| 20260509134841 | 16 | 87 | 3.2 | 6.4 | 0.05 | 0.05 | 0.05 | 82 | 1046.7 |
| 20260509134831 | 16 | 87 | 3.2 | 6.4 | 0.05 | 0.05 | 0.03 | 82 | 1046.8 |
| 20260509134822 | 16 | 87 | 3.2 | 6.4 | 0.03 | 0.03 | 0.03 | 82 | 1046.8 |
| 20260509134816 | 16 | 87 | 3.2 | 6.4 | 0.03 | 0.03 | 0.03 | 82 | 1046.8 |
| 20260509134807 | 16 | 87 | 3.2 | 6.4 | 0.03 | 0.03 | 0.03 | 82 | 1046.8 |
| 20260509134230 | 16 | 88 | 1.6 | 6.4 | 0.03 | 0.03 | 0.03 | 82 | 1046.9 |
| 20260509134130 | 16 | 89 | 1.6 | 6.4 | 0.03 | 0.03 | 0.03 | 82 | 1046.9 |
| 20260509134108 | 16 | 89 | 1.6 | 6.4 | 0.03 | 0.03 | 0.03 | 82 | 1047.0 |
| 20260509134100 | 16 | 89 | 1.6 | 4.8 | 0.03 | 0.03 | 0.03 | 81 | 1047.0 |
| 20260509133827 | 16 | 89 | 1.6 | 4.8 | 0.03 | 0.03 | 0.03 | 81 | 1047.1 |
| 20260509133724 | 16 | 89 | 1.6 | 4.8 | 0.03 | 0.03 | 0.03 | 80 | 1047.1 |
| 20260509133622 | 16 | 89 | 1.6 | 4.8 | 0.03 | 0.03 | 0.03 | 80 | 1047.1 |
| 20260509133522 | 16 | 89 | 1.6 | 4.8 | 0.03 | 0.03 | 0.03 | 80 | 1047.1 |
| 20260509133427 | 16 | 89 | 1.6 | 4.8 | 0.03 | 0.03 | 0.00 | 80 | 1047.1 |
| 20260509133413 | 16 | 89 | 1.6 | 4.8 | 0.00 | 0.00 | 0.00 | 79 | 1047.2 |
| 20260509133356 | 16 | 89 | 1.6 | 4.8 | 0.00 | 0.00 | 0.00 | 79 | 1047.2 |
| 20260509133132 | 16 | 89 | 1.6 | 3.2 | 0.00 | 0.00 | 0.00 | 79 | 1047.2 |
| 20260509132815 | 16 | 89 | 1.6 | 3.2 | 0.00 | 0.00 | 0.00 | 78 | 1047.2 |
| 20260509132710 | 16 | 89 | 1.6 | 3.2 | 0.00 | 0.00 | 0.00 | 78 | 1047.2 |
| 20260509132658 | 16 | 89 | 1.6 | 3.2 | 0.00 | 0.00 | 0.00 | 78 | 1047.2 |
| 20260509132651 | 16 | 89 | 0.0 | 3.2 | 0.00 | 0.00 | 0.00 | 79 | 1047.2 |
| 20260509132641 | 16 | 89 | 1.6 | 3.2 | 0.00 | 0.00 | 0.00 | 79 | 1047.3 |
| 20260509132624 | 16 | 89 | 1.6 | 3.2 | 0.00 | 0.00 | 0.00 | 78 | 1047.2 |
| 20260509132616 | 16 | 90 | 1.6 | 4.8 | 0.00 | 0.00 | 0.00 | 78 | 1047.2 |
| 20260509132609 | 16 | 89 | 1.6 | 4.8 | 0.00 | 0.00 | 0.00 | 78 | 1047.3 |
| 20260509132554 | 16 | 89 | 1.6 | 4.8 | 0.00 | 0.00 | 0.00 | 78 | 1047.3 |
| 20260509132549 | 16 | 89 | 1.6 | 4.8 | 0.00 | 0.00 | 0.00 | 78 | 1047.3 |
| 20260509132314 | 16 | 89 | 1.6 | 4.8 | 0.00 | 0.00 | 0.00 | 78 | 1047.3 |
| 20260509132307 | 16 | 89 | 1.6 | 4.8 | 0.00 | 0.00 | 0.00 | 78 | 1047.3 |
| 20260509132044 | 16 | 89 | 1.6 | 4.8 | 0.00 | 0.00 | 0.00 | 77 | 1047.4 |
| 20260509132036 | 16 | 89 | 1.6 | 6.4 | 0.00 | 0.00 | 0.00 | 77 | 1047.4 |
| 20260509132016 | 16 | 89 | 1.6 | 6.4 | 0.00 | 0.00 | 0.00 | 77 | 1047.4 |
| 20260509132005 | 16 | 89 | 1.6 | 9.7 | 0.00 | 0.00 | 0.00 | 77 | 1047.5 |
| 20260509131735 | 16 | 89 | 1.6 | 9.7 | 0.00 | 0.00 | 0.00 | 77 | 1047.5 |
| 20260509131726 | 16 | 89 | 1.6 | 9.7 | 0.00 | 0.00 | 0.00 | 77 | 1047.5 |
| 20260509131008 | 16 | 89 | 3.2 | 9.7 | 0.00 | 0.00 | 0.00 | 77 | 1047.5 |
| 20260509131001 | 16 | 89 | 3.2 | 9.7 | 0.00 | 0.00 | 0.00 | 77 | 1047.5 |
| 20260509130156 | 16 | 87 | 4.8 | 12.9 | 0.00 | 0.00 | 0.00 | 77 | 1047.6 |
| 20260509130052 | 16 | 88 | 4.8 | 12.9 | 0.00 | 0.00 | 0.00 | 77 | 1047.6 |
| 20260509125949 | 16 | 87 | 4.8 | 12.9 | 0.00 | 0.00 | 0.00 | 77 | 1047.6 |
| 20260509125849 | 16 | 87 | 6.4 | 12.9 | 0.00 | 0.00 | 0.00 | 77 | 1047.5 |
| 20260509125807 | 16 | 87 | 6.4 | 12.9 | 0.00 | 0.00 | 0.00 | 77 | 1047.6 |
| 20260509125747 | 16 | 87 | 6.4 | 12.9 | 0.00 | 0.00 | 0.00 | 77 | 1047.6 |
| 20260509125647 | 16 | 87 | 6.4 | 12.9 | 0.00 | 0.00 | 0.00 | 77 | 1047.5 |
| 20260509125546 | 16 | 87 | 4.8 | 12.9 | 0.00 | 0.00 | 0.00 | 77 | 1047.5 |
| 20260509125536 | 16 | 87 | 4.8 | 12.9 | 0.00 | 0.00 | 0.00 | 76 | 1047.5 |
| 20260509125527 | 16 | 76 | 4.8 | 12.9 | 0.00 | 0.00 | 0.00 | 77 | 1047.4 |
| 20260509125518 | 16 | 77 | 4.8 | 12.9 | 0.00 | 0.00 | 0.00 | 77 | 1047.4 |
| 20260509125505 | 16 | 163 | 4.8 | 12.9 | 0.00 | 0.00 | 0.00 | 76 | 1047.4 |
| 20260509125455 | 16 | 128 | 4.8 | 11.3 | 0.00 | 0.00 | 0.00 | 76 | 1047.4 |
| 20260509125228 | 16 | 63 | 4.8 | 11.3 | 0.00 | 0.00 | 0.00 | 76 | 1047.3 |
| 20260509125209 | 16 | 74 | 4.8 | 11.3 | 0.00 | 0.00 | 0.00 | 76 | 1047.3 |
| 20260509124945 | 16 | 74 | 4.8 | 12.9 | 0.00 | 0.00 | 0.00 | 76 | 1047.3 |
| 20260509124937 | 16 | 74 | 4.8 | 12.9 | 0.00 | 0.00 | 0.00 | 76 | 1047.3 |
| 20260509124445 | 16 | 74 | 4.8 | 12.9 | 0.00 | 0.00 | 0.00 | 76 | 1047.3 |
| 20260509124428 | 16 | 74 | 4.8 | 12.9 | 0.00 | 0.00 | 0.00 | 76 | 1047.2 |
| 20260509124205 | 16 | 65 | 4.8 | 12.9 | 0.00 | 0.00 | 0.00 | 76 | 1047.2 |
| 20260509124149 | 16 | 64 | 4.8 | 12.9 | 0.00 | 0.00 | 0.00 | 75 | 1047.2 |
| 20260509124125 | 16 | 63 | 4.8 | 12.9 | 0.00 | 0.00 | 0.00 | 75 | 1047.1 |
| 20260509123858 | 16 | 143 | 4.8 | 11.3 | 0.00 | 0.00 | 0.00 | 75 | 1047.1 |
| 20260509123548 | 16 | 145 | 4.8 | 11.3 | 0.00 | 0.00 | 0.00 | 75 | 1047.1 |
| 20260509123540 | 16 | 145 | 4.8 | 11.3 | 0.00 | 0.00 | 0.00 | 75 | 1047.0 |
| 20260509123526 | 16 | 145 | 6.4 | 14.5 | 0.00 | 0.00 | 0.00 | 75 | 1047.0 |
| 20260509123239 | 16 | 145 | 6.4 | 16.1 | 0.00 | 0.00 | 0.00 | 75 | 1046.9 |
| 20260509123139 | 16 | 145 | 6.4 | 16.1 | 0.00 | 0.00 | 0.00 | 75 | 1046.9 |
| 20260509123049 | 16 | 145 | 8.0 | 17.7 | 0.00 | 0.00 | 0.00 | 75 | 1046.8 |
| 20260509123039 | 16 | 145 | 8.0 | 19.3 | 0.00 | 0.00 | 0.00 | 75 | 1046.8 |
| 20260509123027 | 16 | 144 | 8.0 | 19.3 | 0.00 | 0.00 | 0.00 | 75 | 1046.8 |
| 20260509122739 | 16 | 145 | 8.0 | 19.3 | 0.00 | 0.00 | 0.00 | 74 | 1046.7 |
| 20260509122637 | 16 | 54 | 8.0 | 19.3 | 0.00 | 0.00 | 0.00 | 74 | 1046.7 |
| 20260509122536 | 16 | 54 | 8.0 | 19.3 | 0.00 | 0.00 | 0.00 | 75 | 1046.7 |
| 20260509122437 | 16 | 79 | 8.0 | 19.3 | 0.00 | 0.00 | 0.00 | 74 | 1046.6 |
| 20260509122338 | 16 | 54 | 8.0 | 19.3 | 0.00 | 0.00 | 0.00 | 75 | 1046.6 |
| 20260509122306 | 16 | 58 | 8.0 | 19.3 | 0.00 | 0.00 | 0.00 | 75 | 1046.6 |
| 20260509122236 | 16 | 49 | 8.0 | 19.3 | 0.00 | 0.00 | 0.00 | 75 | 1046.5 |
| 20260509122136 | 16 | 61 | 8.0 | 19.3 | 0.00 | 0.00 | 0.00 | 75 | 1046.5 |
| 20260509122108 | 16 | 55 | 6.4 | 19.3 | 0.00 | 0.00 | 0.00 | 76 | 1046.4 |
| 20260509122059 | 16 | 75 | 8.0 | 14.5 | 0.00 | 0.00 | 0.00 | 76 | 1046.4 |
| 20260509121804 | 16 | 75 | 8.0 | 14.5 | 0.00 | 0.00 | 0.00 | 76 | 1046.5 |
| 20260509121740 | 16 | 75 | 8.0 | 14.5 | 0.00 | 0.00 | 0.00 | 76 | 1046.6 |
| 20260509121636 | 16 | 75 | 6.4 | 14.5 | 0.00 | 0.00 | 0.00 | 76 | 1046.6 |
| 20260509121544 | 16 | 73 | 8.0 | 14.5 | 0.00 | 0.00 | 0.00 | 76 | 1046.7 |
| 20260509121537 | 16 | 72 | 8.0 | 17.7 | 0.00 | 0.00 | 0.00 | 76 | 1046.8 |
| 20260509121523 | 16 | 79 | 8.0 | 17.7 | 0.00 | 0.00 | 0.00 | 77 | 1046.9 |
| 20260509121237 | 16 | 67 | 8.0 | 17.7 | 0.00 | 0.00 | 0.00 | 77 | 1047.0 |
| 20260509121136 | 16 | 67 | 6.4 | 17.7 | 0.00 | 0.00 | 0.00 | 77 | 1047.1 |
| 20260509121034 | 16 | 64 | 6.4 | 17.7 | 0.00 | 0.00 | 0.00 | 77 | 1047.1 |
| 20260509120932 | 16 | 66 | 6.4 | 17.7 | 0.00 | 0.00 | 0.00 | 77 | 1047.2 |
| 20260509120831 | 16 | 66 | 6.4 | 17.7 | 0.00 | 0.00 | 0.00 | 77 | 1047.2 |
| 20260509120805 | 16 | 68 | 6.4 | 17.7 | 0.00 | 0.00 | 0.00 | 77 | 1047.2 |
| 20260509120731 | 16 | 66 | 8.0 | 17.7 | 0.00 | 0.00 | 0.00 | 77 | 1047.1 |
| 20260509120630 | 16 | 67 | 8.0 | 17.7 | 0.00 | 0.00 | 0.00 | 77 | 1047.1 |
| 20260509120530 | 16 | 66 | 6.4 | 17.7 | 0.00 | 0.00 | 0.00 | 77 | 1047.2 |
| 20260509120430 | 16 | 64 | 6.4 | 12.9 | 0.00 | 0.00 | 0.00 | 77 | 1047.2 |
| 20260509120327 | 16 | 99 | 6.4 | 12.9 | 0.00 | 0.00 | 0.00 | 77 | 1047.2 |
| 20260509120305 | 16 | 104 | 6.4 | 14.5 | 0.00 | 0.00 | 0.00 | 77 | 1047.2 |
| 20260509120224 | 16 | 106 | 6.4 | 14.5 | 0.00 | 0.00 | 0.00 | 77 | 1047.3 |
| 20260509120124 | 16 | 107 | 6.4 | 14.5 | 0.00 | 0.00 | 0.00 | 76 | 1047.3 |
| 20260509120054 | 16 | 108 | 6.4 | 14.5 | 0.00 | 0.00 | 0.00 | 77 | 1047.4 |
| 20260509120046 | 16 | 131 | 6.4 | 14.5 | 0.00 | 0.00 | 0.00 | 77 | 1047.4 |
| 20260509115806 | 16 | 73 | 6.4 | 14.5 | 0.00 | 0.00 | 0.00 | 78 | 1047.5 |
| 20260509115722 | 16 | 128 | 6.4 | 14.5 | 0.00 | 0.00 | 0.00 | 77 | 1047.5 |
| 20260509115653 | 16 | 138 | 6.4 | 14.5 | 0.00 | 0.00 | 0.00 | 77 | 1047.6 |
| 20260509115644 | 16 | 145 | 6.4 | 14.5 | 0.00 | 0.00 | 0.00 | 77 | 1047.6 |
| 20260509115314 | 16 | 70 | 6.4 | 14.5 | 0.00 | 0.00 | 0.00 | 77 | 1047.6 |
| 20260509115307 | 16 | 65 | 6.4 | 14.5 | 0.00 | 0.00 | 0.00 | 77 | 1047.6 |
| 20260509115208 | 16 | 108 | 6.4 | 14.5 | 0.00 | 0.00 | 0.00 | 76 | 1047.7 |
| 20260509115108 | 16 | 126 | 6.4 | 14.5 | 0.00 | 0.00 | 0.00 | 76 | 1047.7 |
| 20260509115010 | 16 | 133 | 8.0 | 14.5 | 0.00 | 0.00 | 0.00 | 76 | 1047.8 |
| 20260509114908 | 17 | 133 | 8.0 | 19.3 | 0.00 | 0.00 | 0.00 | 76 | 1047.9 |
| 20260509114807 | 17 | 135 | 8.0 | 19.3 | 0.00 | 0.00 | 0.00 | 76 | 1048.0 |
| 20260509114704 | 17 | 82 | 8.0 | 19.3 | 0.00 | 0.00 | 0.00 | 76 | 1047.9 |
| 20260509114605 | 17 | 138 | 8.0 | 19.3 | 0.00 | 0.00 | 0.00 | 76 | 1047.9 |
| 20260509114504 | 17 | 108 | 8.0 | 19.3 | 0.00 | 0.00 | 0.00 | 76 | 1048.0 |
| 20260509114405 | 17 | 106 | 8.0 | 19.3 | 0.00 | 0.00 | 0.00 | 76 | 1048.0 |
| 20260509114332 | 17 | 108 | 8.0 | 19.3 | 0.00 | 0.00 | 0.00 | 76 | 1048.0 |
| 20260509114309 | 17 | 108 | 8.0 | 19.3 | 0.00 | 0.00 | 0.00 | 75 | 1048.0 |
| 20260509114301 | 17 | 43 | 8.0 | 19.3 | 0.00 | 0.00 | 0.00 | 75 | 1048.0 |
| 20260509114252 | 17 | 145 | 8.0 | 19.3 | 0.00 | 0.00 | 0.00 | 76 | 1048.1 |
| 20260509114244 | 17 | 113 | 8.0 | 16.1 | 0.00 | 0.00 | 0.00 | 76 | 1048.1 |
| 20260509114221 | 17 | 120 | 8.0 | 20.9 | 0.00 | 0.00 | 0.00 | 76 | 1048.2 |
| 20260509113957 | 17 | 85 | 8.0 | 20.9 | 0.00 | 0.00 | 0.00 | 75 | 1048.2 |
| 20260509113934 | 17 | 141 | 8.0 | 20.9 | 0.00 | 0.00 | 0.00 | 75 | 1048.2 |
| 20260509113450 | 17 | 85 | 8.0 | 20.9 | 0.00 | 0.00 | 0.00 | 75 | 1048.3 |
| 20260509113225 | 17 | 96 | 9.7 | 20.9 | 0.00 | 0.00 | 0.00 | 75 | 1048.4 |
| 20260509112903 | 17 | 105 | 8.0 | 22.5 | 0.00 | 0.00 | 0.00 | 76 | 1048.5 |
| 20260509112803 | 17 | 113 | 8.0 | 22.5 | 0.00 | 0.00 | 0.00 | 76 | 1048.5 |
| 20260509112703 | 17 | 112 | 9.7 | 22.5 | 0.00 | 0.00 | 0.00 | 76 | 1048.4 |
| 20260509112604 | 17 | 152 | 9.7 | 22.5 | 0.00 | 0.00 | 0.00 | 76 | 1048.5 |
| 20260509112545 | 17 | 163 | 9.7 | 22.5 | 0.00 | 0.00 | 0.00 | 76 | 1048.5 |
| 20260509112539 | 17 | 108 | 11.3 | 22.5 | 0.00 | 0.00 | 0.00 | 75 | 1048.5 |
| 20260509112525 | 17 | 108 | 11.3 | 22.5 | 0.00 | 0.00 | 0.00 | 75 | 1048.5 |
| 20260509112203 | 17 | 101 | 11.3 | 22.5 | 0.00 | 0.00 | 0.00 | 75 | 1048.5 |
| 20260509112103 | 17 | 142 | 11.3 | 22.5 | 0.00 | 0.00 | 0.00 | 75 | 1048.6 |
| 20260509112004 | 17 | 150 | 11.3 | 20.9 | 0.00 | 0.00 | 0.00 | 76 | 1048.6 |
| 20260509111943 | 17 | 41 | 11.3 | 20.9 | 0.00 | 0.00 | 0.00 | 77 | 1048.5 |
| 20260509111931 | 17 | 64 | 11.3 | 20.9 | 0.00 | 0.00 | 0.00 | 77 | 1048.5 |
| 20260509111924 | 17 | 64 | 11.3 | 20.9 | 0.00 | 0.00 | 0.00 | 77 | 1048.5 |
| 20260509111600 | 17 | 135 | 9.7 | 20.9 | 0.00 | 0.00 | 0.00 | 77 | 1048.6 |
| 20260509111534 | 17 | 147 | 9.7 | 20.9 | 0.00 | 0.00 | 0.00 | 77 | 1048.5 |
| 20260509111528 | 17 | 110 | 9.7 | 19.3 | 0.00 | 0.00 | 0.00 | 78 | 1048.5 |
| 20260509111516 | 17 | 138 | 8.0 | 19.3 | 0.00 | 0.00 | 0.00 | 79 | 1048.4 |
| 20260509111154 | 17 | 67 | 8.0 | 19.3 | 0.00 | 0.00 | 0.00 | 79 | 1048.4 |
| 20260509111054 | 17 | 130 | 8.0 | 16.1 | 0.00 | 0.00 | 0.00 | 80 | 1048.4 |
| 20260509110954 | 17 | 115 | 6.4 | 16.1 | 0.00 | 0.00 | 0.00 | 80 | 1048.4 |
| 20260509110928 | 17 | 94 | 8.0 | 16.1 | 0.00 | 0.00 | 0.00 | 80 | 1048.3 |
| 20260509110918 | 17 | 92 | 8.0 | 16.1 | 0.00 | 0.00 | 0.00 | 80 | 1048.2 |
| 20260509110910 | 17 | 92 | 8.0 | 16.1 | 0.00 | 0.00 | 0.00 | 80 | 1048.2 |
| 20260509110629 | 17 | 96 | 8.0 | 16.1 | 0.00 | 0.00 | 0.00 | 79 | 1048.2 |
| 20260509110621 | 17 | 96 | 8.0 | 16.1 | 0.00 | 0.00 | 0.00 | 79 | 1048.2 |
| 20260509110334 | 17 | 103 | 8.0 | 16.1 | 0.00 | 0.00 | 0.00 | 79 | 1048.2 |
| 20260509110314 | 17 | 106 | 8.0 | 16.1 | 0.00 | 0.00 | 0.00 | 80 | 1048.2 |
| 20260509110305 | 17 | 106 | 8.0 | 16.1 | 0.00 | 0.00 | 0.00 | 80 | 1048.2 |
| 20260509105945 | 17 | 76 | 8.0 | 16.1 | 0.00 | 0.00 | 0.00 | 80 | 1048.1 |
| 20260509105845 | 17 | 99 | 8.0 | 14.5 | 0.00 | 0.00 | 0.00 | 80 | 1048.2 |
| 20260509105820 | 17 | 102 | 8.0 | 14.5 | 0.00 | 0.00 | 0.00 | 80 | 1048.2 |
| 20260509105809 | 17 | 85 | 8.0 | 14.5 | 0.00 | 0.00 | 0.00 | 80 | 1048.2 |
| 20260509105758 | 17 | 62 | 8.0 | 14.5 | 0.00 | 0.00 | 0.00 | 80 | 1048.2 |
| 20260509105523 | 17 | 73 | 8.0 | 14.5 | 0.00 | 0.00 | 0.00 | 80 | 1048.1 |
| 20260509105245 | 17 | 95 | 8.0 | 14.5 | 0.00 | 0.00 | 0.00 | 80 | 1048.1 |
| 20260509105141 | 17 | 105 | 8.0 | 14.5 | 0.00 | 0.00 | 0.00 | 80 | 1048.1 |
| 20260509105041 | 17 | 68 | 8.0 | 14.5 | 0.00 | 0.00 | 0.00 | 80 | 1048.1 |
| 20260509104944 | 17 | 85 | 6.4 | 12.9 | 0.00 | 0.00 | 0.00 | 80 | 1048.1 |
| 20260509104848 | 17 | 95 | 6.4 | 12.9 | 0.00 | 0.00 | 0.00 | 80 | 1048.1 |
| 20260509104836 | 17 | 79 | 6.4 | 12.9 | 0.00 | 0.00 | 0.00 | 80 | 1048.1 |
| 20260509104827 | 17 | 80 | 6.4 | 12.9 | 0.00 | 0.00 | 0.00 | 80 | 1048.1 |
| 20260509104818 | 17 | 51 | 6.4 | 12.9 | 0.00 | 0.00 | 0.00 | 80 | 1048.1 |
| 20260509104809 | 17 | 68 | 6.4 | 11.3 | 0.00 | 0.00 | 0.00 | 80 | 1048.1 |
| 20260509104801 | 17 | 68 | 4.8 | 11.3 | 0.00 | 0.00 | 0.00 | 80 | 1048.2 |
| 20260509104310 | 17 | 62 | 4.8 | 11.3 | 0.00 | 0.00 | 0.00 | 80 | 1048.3 |
| 20260509104302 | 17 | 111 | 4.8 | 9.7 | 0.00 | 0.00 | 0.00 | 80 | 1048.3 |
| 20260509103939 | 17 | 112 | 4.8 | 12.9 | 0.00 | 0.00 | 0.00 | 81 | 1048.3 |
| 20260509103910 | 17 | 114 | 4.8 | 12.9 | 0.00 | 0.00 | 0.00 | 81 | 1048.3 |
| 20260509103859 | 17 | 114 | 4.8 | 12.9 | 0.00 | 0.00 | 0.00 | 81 | 1048.3 |
| 20260509103851 | 17 | 114 | 4.8 | 12.9 | 0.00 | 0.00 | 0.00 | 81 | 1048.4 |
| 20260509103837 | 17 | 116 | 4.8 | 12.9 | 0.00 | 0.00 | 0.00 | 81 | 1048.4 |
| 20260509103608 | 17 | 116 | 4.8 | 12.9 | 0.00 | 0.00 | 0.00 | 81 | 1048.5 |
| 20260509103233 | 16 | 115 | 4.8 | 12.9 | 0.00 | 0.00 | 0.00 | 81 | 1048.5 |
| 20260509103133 | 17 | 115 | 4.8 | 12.9 | 0.00 | 0.00 | 0.00 | 81 | 1048.6 |
| 20260509103033 | 16 | 128 | 4.8 | 12.9 | 0.00 | 0.00 | 0.00 | 81 | 1048.6 |
| 20260509102931 | 16 | 129 | 4.8 | 12.9 | 0.00 | 0.00 | 0.00 | 81 | 1048.6 |
| 20260509102853 | 17 | 130 | 4.8 | 12.9 | 0.00 | 0.00 | 0.00 | 81 | 1048.6 |
| 20260509102841 | 17 | 130 | 4.8 | 12.9 | 0.00 | 0.00 | 0.00 | 81 | 1048.6 |
| 20260509102834 | 17 | 138 | 4.8 | 12.9 | 0.00 | 0.00 | 0.00 | 81 | 1048.6 |
| 20260509102822 | 17 | 138 | 4.8 | 12.9 | 0.00 | 0.00 | 0.00 | 81 | 1048.6 |
| 20260509102554 | 17 | 141 | 4.8 | 12.9 | 0.00 | 0.00 | 0.00 | 81 | 1048.6 |
| 20260509102258 | 16 | 102 | 3.2 | 11.3 | 0.00 | 0.00 | 0.00 | 80 | 1048.6 |
| 20260509102231 | 17 | 104 | 3.2 | 9.7 | 0.00 | 0.00 | 0.00 | 80 | 1048.6 |
| 20260509102130 | 16 | 103 | 3.2 | 9.7 | 0.00 | 0.00 | 0.00 | 80 | 1048.6 |
| 20260509102030 | 16 | 99 | 3.2 | 9.7 | 0.00 | 0.00 | 0.00 | 80 | 1048.6 |
| 20260509101943 | 16 | 96 | 3.2 | 6.4 | 0.00 | 0.00 | 0.00 | 80 | 1048.6 |
| 20260509101933 | 16 | 95 | 3.2 | 6.4 | 0.00 | 0.00 | 0.00 | 80 | 1048.6 |
| 20260509101915 | 16 | 95 | 3.2 | 6.4 | 0.00 | 0.00 | 0.00 | 80 | 1048.6 |
| 20260509101908 | 16 | 95 | 3.2 | 6.4 | 0.00 | 0.00 | 0.00 | 80 | 1048.5 |
| 20260509101900 | 16 | 95 | 3.2 | 6.4 | 0.00 | 0.00 | 0.00 | 80 | 1048.5 |
| 20260509101849 | 16 | 95 | 3.2 | 6.4 | 0.00 | 0.00 | 0.00 | 79 | 1048.5 |
| 20260509101838 | 16 | 95 | 3.2 | 6.4 | 0.00 | 0.00 | 0.00 | 80 | 1048.4 |
| 20260509101027 | 16 | 95 | 3.2 | 6.4 | 0.00 | 0.00 | 0.00 | 80 | 1048.5 |
| 20260509100921 | 16 | 95 | 3.2 | 6.4 | 0.00 | 0.00 | 0.00 | 80 | 1048.5 |
| 20260509100819 | 16 | 95 | 3.2 | 6.4 | 0.00 | 0.00 | 0.00 | 79 | 1048.5 |
| 20260509100757 | 16 | 95 | 3.2 | 6.4 | 0.00 | 0.00 | 0.00 | 79 | 1048.5 |
| 20260509100717 | 16 | 95 | 3.2 | 6.4 | 0.00 | 0.00 | 0.00 | 79 | 1048.5 |
| 20260509100617 | 16 | 95 | 3.2 | 6.4 | 0.00 | 0.00 | 0.00 | 79 | 1048.5 |
| 20260509100517 | 16 | 95 | 4.8 | 9.7 | 0.00 | 0.00 | 0.00 | 79 | 1048.4 |
| 20260509100509 | 17 | 95 | 4.8 | 9.7 | 0.00 | 0.00 | 0.00 | 79 | 1048.4 |
| 20260509100459 | 16 | 95 | 4.8 | 9.7 | 0.00 | 0.00 | 0.00 | 79 | 1048.4 |
| 20260509100450 | 17 | 95 | 4.8 | 9.7 | 0.00 | 0.00 | 0.00 | 79 | 1048.4 |
| 20260509100111 | 17 | 95 | 4.8 | 9.7 | 0.00 | 0.00 | 0.00 | 79 | 1048.5 |
| 20260509100103 | 17 | 95 | 4.8 | 9.7 | 0.00 | 0.00 | 0.00 | 79 | 1048.5 |
| 20260509100055 | 17 | 95 | 4.8 | 9.7 | 0.00 | 0.00 | 0.00 | 79 | 1048.5 |
| 20260509100040 | 16 | 95 | 4.8 | 11.3 | 0.00 | 0.00 | 0.00 | 79 | 1048.5 |
| 20260509100027 | 17 | 95 | 4.8 | 11.3 | 0.00 | 0.00 | 0.00 | 79 | 1048.5 |
| 20260509095804 | 17 | 94 | 6.4 | 11.3 | 0.00 | 0.00 | 0.00 | 79 | 1048.4 |
| 20260509095754 | 17 | 95 | 6.4 | 11.3 | 0.00 | 0.00 | 0.00 | 79 | 1048.5 |
| 20260509095747 | 17 | 95 | 6.4 | 11.3 | 0.00 | 0.00 | 0.00 | 79 | 1048.4 |
| 20260509095209 | 17 | 95 | 6.4 | 11.3 | 0.00 | 0.00 | 0.00 | 79 | 1048.5 |
| 20260509095108 | 17 | 95 | 6.4 | 11.3 | 0.00 | 0.00 | 0.00 | 79 | 1048.4 |
| 20260509095007 | 17 | 95 | 6.4 | 12.9 | 0.00 | 0.00 | 0.00 | 79 | 1048.4 |
| 20260509094925 | 17 | 95 | 6.4 | 12.9 | 0.00 | 0.00 | 0.00 | 79 | 1048.4 |
| 20260509094917 | 17 | 96 | 4.8 | 12.9 | 0.00 | 0.00 | 0.00 | 79 | 1048.3 |
| 20260509094902 | 17 | 96 | 4.8 | 12.9 | 0.00 | 0.00 | 0.00 | 79 | 1048.3 |
| 20260509094850 | 17 | 98 | 4.8 | 12.9 | 0.00 | 0.00 | 0.00 | 79 | 1048.3 |
| 20260509094625 | 17 | 99 | 4.8 | 12.9 | 0.00 | 0.00 | 0.00 | 79 | 1048.3 |
| 20260509094321 | 17 | 98 | 3.2 | 12.9 | 0.00 | 0.00 | 0.00 | 80 | 1048.3 |
| 20260509094312 | 17 | 100 | 4.8 | 12.9 | 0.00 | 0.00 | 0.00 | 80 | 1048.3 |
| 20260509094304 | 17 | 100 | 4.8 | 12.9 | 0.00 | 0.00 | 0.00 | 79 | 1048.3 |
| 20260509094252 | 17 | 100 | 4.8 | 12.9 | 0.00 | 0.00 | 0.00 | 79 | 1048.3 |
| 20260509094239 | 17 | 101 | 4.8 | 9.7 | 0.00 | 0.00 | 0.00 | 80 | 1048.3 |
| 20260509094001 | 17 | 101 | 4.8 | 17.7 | 0.00 | 0.00 | 0.00 | 79 | 1048.2 |
| 20260509093731 | 17 | 101 | 4.8 | 17.7 | 0.00 | 0.00 | 0.00 | 80 | 1048.3 |
| 20260509093724 | 17 | 101 | 6.4 | 17.7 | 0.00 | 0.00 | 0.00 | 80 | 1048.2 |
| 20260509093358 | 16 | 102 | 6.4 | 17.7 | 0.00 | 0.00 | 0.00 | 80 | 1048.3 |
| 20260509093240 | 16 | 100 | 6.4 | 17.7 | 0.00 | 0.00 | 0.00 | 80 | 1048.2 |
| 20260509093159 | 16 | 100 | 6.4 | 17.7 | 0.00 | 0.00 | 0.00 | 80 | 1048.2 |
| 20260509093100 | 16 | 101 | 6.4 | 17.7 | 0.00 | 0.00 | 0.00 | 79 | 1048.2 |
| 20260509092959 | 16 | 100 | 6.4 | 17.7 | 0.00 | 0.00 | 0.00 | 79 | 1048.2 |
| 20260509092859 | 16 | 102 | 6.4 | 17.7 | 0.00 | 0.00 | 0.00 | 79 | 1048.2 |
| 20260509092759 | 16 | 131 | 6.4 | 16.1 | 0.00 | 0.00 | 0.00 | 80 | 1048.1 |
| 20260509092736 | 16 | 65 | 8.0 | 16.1 | 0.00 | 0.00 | 0.00 | 79 | 1048.1 |
| 20260509092659 | 16 | 62 | 8.0 | 16.1 | 0.00 | 0.00 | 0.00 | 79 | 1048.1 |
| 20260509092559 | 16 | 62 | 8.0 | 16.1 | 0.00 | 0.00 | 0.00 | 79 | 1048.1 |
| 20260509092459 | 16 | 62 | 8.0 | 16.1 | 0.00 | 0.00 | 0.00 | 79 | 1048.0 |
| 20260509092358 | 16 | 62 | 8.0 | 16.1 | 0.00 | 0.00 | 0.00 | 79 | 1048.0 |
| 20260509092236 | 16 | 66 | 8.0 | 16.1 | 0.00 | 0.00 | 0.00 | 79 | 1048.1 |
| 20260509092157 | 16 | 65 | 8.0 | 16.1 | 0.00 | 0.00 | 0.00 | 79 | 1048.1 |
| 20260509092056 | 16 | 112 | 8.0 | 14.5 | 0.00 | 0.00 | 0.00 | 79 | 1048.1 |
| 20260509091957 | 16 | 112 | 8.0 | 14.5 | 0.00 | 0.00 | 0.00 | 79 | 1048.1 |
| 20260509091855 | 16 | 112 | 8.0 | 14.5 | 0.00 | 0.00 | 0.00 | 79 | 1048.0 |
| 20260509091813 | 16 | 44 | 8.0 | 14.5 | 0.00 | 0.00 | 0.00 | 79 | 1047.9 |
| 20260509091804 | 16 | 62 | 8.0 | 14.5 | 0.00 | 0.00 | 0.00 | 79 | 1047.9 |
| 20260509091754 | 16 | 91 | 8.0 | 14.5 | 0.00 | 0.00 | 0.00 | 79 | 1047.9 |
| 20260509091743 | 16 | 46 | 8.0 | 14.5 | 0.00 | 0.00 | 0.00 | 79 | 1047.8 |